Time,TemperatureF,DewpointF,PressureIn,WindDirection,WindDirectionDegrees,WindSpeedMPH,WindSpeedGustMPH,Humidity,HourlyPrecipIn,Conditions,Clouds,dailyrainin,SoftwareType,DateUTC
2013-12-22 00:00:00,21.2,14.3,30.06,West,270,0.0,0.0,74,0.00,,SKC,0.00,VWS V14.00,2013-12-22 08:00:00,
2013-12-22 00:01:00,21.2,14.3,30.06,North,0,0.0,0.0,74,0.00,,SKC,0.00,VWS V14.00,2013-12-22 08:01:00,
2013-12-22 00:04:00,21.1,14.1,30.06,North,0,0.0,0.0,74,0.00,,SKC,0.00,VWS V14.00,2013-12-22 08:04:00,
2013-12-22 00:05:00,21.1,14.1,30.06,North,0,0.0,0.0,74,0.00,,SKC,0.00,VWS V14.00,2013-12-22 08:05:00,
2013-12-22 00:06:00,21.1,14.1,30.06,North,0,0.0,0.0,74,0.00,,SKC,0.00,VWS V14.00,2013-12-22 08:06:00,
2013-12-22 00:09:00,21.1,14.1,30.06,ENE,68,0.0,0.0,74,0.00,,SKC,0.00,VWS V14.00,2013-12-22 08:09:00,
2013-12-22 00:10:00,21.1,14.1,30.06,ENE,68,0.0,0.0,74,0.00,,SKC,0.00,VWS V14.00,2013-12-22 08:10:00,
2013-12-22 00:11:00,21.1,14.4,30.06,ENE,68,0.0,0.0,75,0.00,,SKC,0.00,VWS V14.00,2013-12-22 08:11:00,
2013-12-22 00:14:00,21.1,14.4,30.06,ENE,68,0.0,0.0,75,0.00,,SKC,0.00,VWS V14.00,2013-12-22 08:14:00,
2013-12-22 00:15:00,21.1,14.4,30.06,ENE,68,0.0,0.0,75,0.00,,SKC,0.00,VWS V14.00,2013-12-22 08:15:00,
2013-12-22 00:16:00,21.1,14.4,30.06,ENE,68,0.0,0.0,75,0.00,,SKC,0.00,VWS V14.00,2013-12-22 08:16:00,
2013-12-22 00:17:00,21.1,14.4,30.06,ENE,68,0.0,0.0,75,0.00,,SKC,0.00,VWS V14.00,2013-12-22 08:17:00,
2013-12-22 00:20:00,21.1,14.4,30.06,ENE,68,0.0,0.0,75,0.00,,SKC,0.00,VWS V14.00,2013-12-22 08:20:00,
2013-12-22 00:21:00,21.1,14.4,30.06,ESE,112,0.0,0.0,75,0.00,,SKC,0.00,VWS V14.00,2013-12-22 08:21:00,
2013-12-22 00:22:00,21.1,14.4,30.06,ESE,112,0.0,0.0,75,0.00,,SKC,0.00,VWS V14.00,2013-12-22 08:22:00,
2013-12-22 00:25:00,21.1,14.4,30.06,ESE,112,0.0,0.0,75,0.00,,SKC,0.00,VWS V14.00,2013-12-22 08:25:00,
2013-12-22 00:26:00,20.9,14.2,30.06,ESE,112,0.0,0.0,75,0.00,,SKC,0.00,VWS V14.00,2013-12-22 08:26:00,
2013-12-22 00:27:00,20.9,14.2,30.06,ESE,112,0.0,0.0,75,0.00,,SKC,0.00,VWS V14.00,2013-12-22 08:27:00,
2013-12-22 00:30:00,20.9,14.2,30.06,ESE,112,0.0,0.0,75,0.00,,SKC,0.00,VWS V14.00,2013-12-22 08:30:00,
2013-12-22 00:31:00,20.9,14.2,30.06,ESE,112,0.0,0.0,75,0.00,,SKC,0.00,VWS V14.00,2013-12-22 08:31:00,
2013-12-22 00:32:00,20.9,14.2,30.06,ESE,112,0.0,0.0,75,0.00,,SKC,0.00,VWS V14.00,2013-12-22 08:32:00,
2013-12-22 00:35:00,21.6,15.2,30.06,SSW,202,0.0,0.0,76,0.00,,SKC,0.00,VWS V14.00,2013-12-22 08:35:00,
2013-12-22 00:36:00,21.6,15.2,30.06,SSW,202,0.0,0.0,76,0.00,,SKC,0.00,VWS V14.00,2013-12-22 08:36:00,
2013-12-22 00:38:00,21.8,15.4,30.06,SSW,202,1.3,1.3,76,0.00,,SKC,0.00,VWS V14.00,2013-12-22 08:38:00,
2013-12-22 00:40:00,22.1,15.7,30.06,South,180,2.0,2.0,76,0.00,,SKC,0.00,VWS V14.00,2013-12-22 08:40:00,
2013-12-22 00:41:00,22.3,16.2,30.06,South,180,2.5,2.5,77,0.00,,SKC,0.00,VWS V14.00,2013-12-22 08:41:00,
2013-12-22 00:43:00,22.5,16.7,30.06,South,180,2.7,2.7,78,0.00,,SKC,0.00,VWS V14.00,2013-12-22 08:43:00,
2013-12-22 00:45:00,22.9,17.3,30.06,SW,225,2.5,2.5,79,0.00,,SKC,0.00,VWS V14.00,2013-12-22 08:45:00,
2013-12-22 00:46:00,22.9,17.3,30.06,SSW,202,2.5,2.5,79,0.00,,SKC,0.00,VWS V14.00,2013-12-22 08:46:00,
2013-12-22 00:47:00,23.0,17.8,30.06,SSW,202,2.5,2.5,80,0.00,,SKC,0.00,VWS V14.00,2013-12-22 08:47:00,
2013-12-22 00:48:00,23.0,17.8,30.06,South,180,3.1,3.1,80,0.00,,SKC,0.00,VWS V14.00,2013-12-22 08:48:00,
2013-12-22 00:51:00,23.0,18.1,30.06,South,180,1.6,1.6,81,0.00,,SKC,0.00,VWS V14.00,2013-12-22 08:51:00,
2013-12-22 00:52:00,23.0,18.1,30.06,South,180,2.9,2.9,81,0.00,,SKC,0.00,VWS V14.00,2013-12-22 08:52:00,
2013-12-22 00:53:00,23.0,18.1,30.06,SSW,202,1.3,1.3,81,0.00,,SKC,0.00,VWS V14.00,2013-12-22 08:53:00,
2013-12-22 00:56:00,22.9,17.9,30.06,SSW,202,0.0,0.0,81,0.00,,SKC,0.00,VWS V14.00,2013-12-22 08:56:00,
2013-12-22 00:57:00,22.9,17.9,30.06,SSW,202,0.0,0.0,81,0.00,,SKC,0.00,VWS V14.00,2013-12-22 08:57:00,
2013-12-22 00:58:00,22.7,17.5,30.06,SSW,202,0.0,0.0,80,0.00,,SKC,0.00,VWS V14.00,2013-12-22 08:58:00,
2013-12-22 00:59:00,22.7,17.5,30.06,SSW,202,0.0,0.0,80,0.00,,SKC,0.00,VWS V14.00,2013-12-22 08:59:00,
2013-12-22 01:01:00,22.5,17.3,30.06,WNW,292,0.0,0.0,80,0.00,,SKC,0.00,VWS V14.00,2013-12-22 09:01:00,
2013-12-22 01:02:00,22.5,17.3,30.06,WNW,292,0.0,0.0,80,0.00,,SKC,0.00,VWS V14.00,2013-12-22 09:02:00,
2013-12-22 01:04:00,22.5,17.3,30.06,WNW,292,0.0,0.0,80,0.00,,SKC,0.00,VWS V14.00,2013-12-22 09:04:00,
2013-12-22 01:05:00,22.5,17.3,30.06,WSW,248,0.0,0.0,80,0.00,,SKC,0.00,VWS V14.00,2013-12-22 09:05:00,
2013-12-22 01:06:00,22.5,17.3,30.06,WSW,248,0.0,0.0,80,0.00,,SKC,0.00,VWS V14.00,2013-12-22 09:06:00,
2013-12-22 01:07:00,22.7,17.5,30.06,WSW,248,0.0,0.0,80,0.00,,SKC,0.00,VWS V14.00,2013-12-22 09:07:00,
2013-12-22 01:09:00,22.5,17.3,30.06,West,270,0.0,0.0,80,0.00,,SKC,0.00,VWS V14.00,2013-12-22 09:09:00,
2013-12-22 01:10:00,22.7,17.5,30.06,West,270,0.0,0.0,80,0.00,,SKC,0.00,VWS V14.00,2013-12-22 09:10:00,
2013-12-22 01:11:00,22.7,17.5,30.06,West,270,0.0,0.0,80,0.00,,SKC,0.00,VWS V14.00,2013-12-22 09:11:00,
2013-12-22 01:12:00,22.7,17.5,30.06,West,270,0.0,0.0,80,0.00,,SKC,0.00,VWS V14.00,2013-12-22 09:12:00,
2013-12-22 01:13:00,22.5,17.3,30.06,West,270,0.0,0.0,80,0.00,,SKC,0.00,VWS V14.00,2013-12-22 09:13:00,
2013-12-22 01:14:00,22.5,17.3,30.06,West,270,0.0,0.0,80,0.00,,SKC,0.00,VWS V14.00,2013-12-22 09:14:00,
2013-12-22 01:15:00,22.7,17.5,30.06,WSW,248,0.0,0.0,80,0.00,,SKC,0.00,VWS V14.00,2013-12-22 09:15:00,
2013-12-22 01:16:00,22.7,17.5,30.06,WSW,248,0.0,0.0,80,0.00,,SKC,0.00,VWS V14.00,2013-12-22 09:16:00,
2013-12-22 01:17:00,22.7,17.5,30.06,WSW,248,0.0,0.0,80,0.00,,SKC,0.00,VWS V14.00,2013-12-22 09:17:00,
2013-12-22 01:18:00,22.7,17.5,30.06,WSW,248,0.0,0.0,80,0.00,,SKC,0.00,VWS V14.00,2013-12-22 09:18:00,
2013-12-22 01:19:00,22.7,17.5,30.06,WSW,248,0.0,0.0,80,0.00,,SKC,0.00,VWS V14.00,2013-12-22 09:19:00,
2013-12-22 01:20:00,22.7,17.5,30.06,WSW,248,0.0,0.0,80,0.00,,SKC,0.00,VWS V14.00,2013-12-22 09:20:00,
2013-12-22 01:21:00,22.7,17.5,30.06,WSW,248,0.0,0.0,80,0.00,,SKC,0.00,VWS V14.00,2013-12-22 09:21:00,
2013-12-22 01:22:00,22.7,17.5,30.06,WSW,248,0.0,0.0,80,0.00,,SKC,0.00,VWS V14.00,2013-12-22 09:22:00,
2013-12-22 01:23:00,22.9,17.6,30.06,WSW,248,0.0,0.0,80,0.00,,SKC,0.00,VWS V14.00,2013-12-22 09:23:00,
2013-12-22 01:24:00,22.9,17.6,30.06,WSW,248,0.0,0.0,80,0.00,,SKC,0.00,VWS V14.00,2013-12-22 09:24:00,
2013-12-22 01:26:00,22.5,17.3,30.06,East,90,0.0,0.0,80,0.00,,SKC,0.00,VWS V14.00,2013-12-22 09:26:00,
2013-12-22 01:27:00,22.5,17.3,30.06,East,90,0.0,0.0,80,0.00,,SKC,0.00,VWS V14.00,2013-12-22 09:27:00,
2013-12-22 01:28:00,22.3,17.1,30.06,East,90,0.0,0.0,80,0.00,,SKC,0.00,VWS V14.00,2013-12-22 09:28:00,
2013-12-22 01:29:00,22.3,16.8,30.06,East,90,0.0,0.0,79,0.00,,SKC,0.00,VWS V14.00,2013-12-22 09:29:00,
2013-12-22 01:31:00,22.1,16.6,30.06,ESE,112,0.0,0.0,79,0.00,,SKC,0.00,VWS V14.00,2013-12-22 09:31:00,
2013-12-22 01:32:00,22.0,16.5,30.06,ESE,112,0.0,0.0,79,0.00,,SKC,0.00,VWS V14.00,2013-12-22 09:32:00,
2013-12-22 01:33:00,22.0,16.5,30.06,ESE,112,0.0,0.0,79,0.00,,SKC,0.00,VWS V14.00,2013-12-22 09:33:00,
2013-12-22 01:34:00,21.8,16.3,30.06,ESE,112,0.0,0.0,79,0.00,,SKC,0.00,VWS V14.00,2013-12-22 09:34:00,
2013-12-22 01:37:00,21.6,16.1,30.06,ESE,112,0.0,0.0,79,0.00,,SKC,0.00,VWS V14.00,2013-12-22 09:37:00,
2013-12-22 01:38:00,21.6,16.1,30.06,ESE,112,0.0,0.0,79,0.00,,SKC,0.00,VWS V14.00,2013-12-22 09:38:00,
2013-12-22 01:39:00,21.4,15.9,30.06,ESE,112,0.0,0.0,79,0.00,,SKC,0.00,VWS V14.00,2013-12-22 09:39:00,
2013-12-22 01:41:00,21.4,15.9,30.06,SE,135,0.0,0.0,79,0.00,,SKC,0.00,VWS V14.00,2013-12-22 09:41:00,
2013-12-22 01:42:00,21.4,15.9,30.06,SE,135,0.0,0.0,79,0.00,,SKC,0.00,VWS V14.00,2013-12-22 09:42:00,
2013-12-22 01:43:00,21.4,15.9,30.06,SE,135,0.0,0.0,79,0.00,,SKC,0.00,VWS V14.00,2013-12-22 09:43:00,
2013-12-22 01:44:00,21.2,15.8,30.06,SE,135,1.3,1.3,79,0.00,,SKC,0.00,VWS V14.00,2013-12-22 09:44:00,
2013-12-22 01:45:00,21.2,15.8,30.06,ESE,112,2.0,2.0,79,0.00,,SKC,0.00,VWS V14.00,2013-12-22 09:45:00,
2013-12-22 01:47:00,21.2,16.0,30.06,ESE,112,0.0,0.0,80,0.00,,SKC,0.00,VWS V14.00,2013-12-22 09:47:00,
2013-12-22 01:48:00,21.4,16.2,30.06,ESE,112,0.0,0.0,80,0.00,,SKC,0.00,VWS V14.00,2013-12-22 09:48:00,
2013-12-22 01:50:00,21.6,16.4,30.06,ESE,112,0.0,0.0,80,0.00,,SKC,0.00,VWS V14.00,2013-12-22 09:50:00,
2013-12-22 01:52:00,21.8,16.6,30.06,ESE,112,0.0,0.0,80,0.00,,SKC,0.00,VWS V14.00,2013-12-22 09:52:00,
2013-12-22 01:53:00,21.8,16.6,30.06,ESE,112,0.0,0.0,80,0.00,,SKC,0.00,VWS V14.00,2013-12-22 09:53:00,
2013-12-22 01:55:00,21.8,16.6,30.06,ESE,112,0.0,0.0,80,0.00,,SKC,0.00,VWS V14.00,2013-12-22 09:55:00,
2013-12-22 01:57:00,21.6,16.7,30.06,ESE,112,0.0,0.0,81,0.00,,SKC,0.00,VWS V14.00,2013-12-22 09:57:00,
2013-12-22 01:58:00,21.6,16.4,30.06,ESE,112,0.0,0.0,80,0.00,,SKC,0.00,VWS V14.00,2013-12-22 09:58:00,
2013-12-22 01:59:00,21.6,16.4,30.06,ESE,112,0.0,0.0,80,0.00,,SKC,0.00,VWS V14.00,2013-12-22 09:59:00,
2013-12-22 02:00:00,21.6,16.7,30.06,East,90,0.0,0.0,81,0.00,,SKC,0.00,VWS V14.00,2013-12-22 10:00:00,
2013-12-22 02:02:00,21.4,16.5,30.06,East,90,0.0,0.0,81,0.00,,SKC,0.00,VWS V14.00,2013-12-22 10:02:00,
2013-12-22 02:03:00,21.4,16.5,30.06,East,90,1.6,1.6,81,0.00,,SKC,0.00,VWS V14.00,2013-12-22 10:03:00,
2013-12-22 02:04:00,21.4,16.5,30.06,East,90,2.5,2.5,81,0.00,,SKC,0.00,VWS V14.00,2013-12-22 10:04:00,
2013-12-22 02:05:00,21.4,16.5,30.06,East,90,0.9,0.9,81,0.00,,SKC,0.00,VWS V14.00,2013-12-22 10:05:00,
2013-12-22 02:07:00,21.4,16.8,30.06,East,90,0.0,0.0,82,0.00,,SKC,0.00,VWS V14.00,2013-12-22 10:07:00,
2013-12-22 02:08:00,21.4,16.8,30.06,East,90,0.0,0.0,82,0.00,,SKC,0.00,VWS V14.00,2013-12-22 10:08:00,
2013-12-22 02:09:00,21.4,16.8,30.06,East,90,0.0,0.0,82,0.00,,SKC,0.00,VWS V14.00,2013-12-22 10:09:00,
2013-12-22 02:10:00,21.4,16.8,30.06,East,90,0.0,0.0,82,0.00,,SKC,0.00,VWS V14.00,2013-12-22 10:10:00,
2013-12-22 02:11:00,21.2,16.6,30.06,East,90,0.0,0.0,82,0.00,,SKC,0.00,VWS V14.00,2013-12-22 10:11:00,
2013-12-22 02:12:00,21.2,16.6,30.06,East,90,0.0,0.0,82,0.00,,SKC,0.00,VWS V14.00,2013-12-22 10:12:00,
2013-12-22 02:14:00,21.2,16.6,30.06,East,90,0.0,0.0,82,0.00,,SKC,0.00,VWS V14.00,2013-12-22 10:14:00,
2013-12-22 02:16:00,21.1,16.2,30.06,NNW,338,0.0,0.0,81,0.00,,SKC,0.00,VWS V14.00,2013-12-22 10:16:00,
2013-12-22 02:17:00,20.9,16.0,30.06,North,0,0.0,0.0,81,0.00,,SKC,0.00,VWS V14.00,2013-12-22 10:17:00,
2013-12-22 02:19:00,20.5,15.3,30.06,North,0,0.0,0.0,80,0.00,,SKC,0.00,VWS V14.00,2013-12-22 10:19:00,
2013-12-22 02:20:00,20.5,15.3,30.06,NNE,22,0.0,0.0,80,0.00,,SKC,0.00,VWS V14.00,2013-12-22 10:20:00,
2013-12-22 02:21:00,20.3,15.2,30.06,NNE,22,0.0,0.0,80,0.00,,SKC,0.00,VWS V14.00,2013-12-22 10:21:00,
2013-12-22 02:22:00,20.3,15.2,30.06,NE,45,1.1,1.1,80,0.00,,SKC,0.00,VWS V14.00,2013-12-22 10:22:00,
2013-12-22 02:24:00,20.3,14.9,30.06,NE,45,0.0,0.0,79,0.00,,SKC,0.00,VWS V14.00,2013-12-22 10:24:00,
2013-12-22 02:25:00,20.3,14.9,30.06,NE,45,0.0,0.0,79,0.00,,SKC,0.00,VWS V14.00,2013-12-22 10:25:00,
2013-12-22 02:26:00,20.2,14.7,30.06,NE,45,0.0,0.0,79,0.00,,SKC,0.00,VWS V14.00,2013-12-22 10:26:00,
2013-12-22 02:27:00,20.2,14.4,30.06,NE,45,0.0,0.0,78,0.00,,SKC,0.00,VWS V14.00,2013-12-22 10:27:00,
2013-12-22 02:29:00,20.2,14.4,30.09,NE,45,0.0,0.0,78,0.00,,SKC,0.00,VWS V14.00,2013-12-22 10:29:00,
2013-12-22 02:30:00,20.2,14.4,30.09,NNE,22,0.0,0.0,78,0.00,,SKC,0.00,VWS V14.00,2013-12-22 10:30:00,
2013-12-22 02:31:00,20.2,14.4,30.09,NNE,22,0.0,0.0,78,0.00,,SKC,0.00,VWS V14.00,2013-12-22 10:31:00,
2013-12-22 02:32:00,20.0,14.5,30.09,NNE,22,0.0,0.0,79,0.00,,SKC,0.00,VWS V14.00,2013-12-22 10:32:00,
2013-12-22 02:34:00,20.0,14.2,30.09,NNE,22,0.0,0.0,78,0.00,,SKC,0.00,VWS V14.00,2013-12-22 10:34:00,
2013-12-22 02:35:00,19.8,14.4,30.09,NNE,22,0.0,0.0,79,0.00,,SKC,0.00,VWS V14.00,2013-12-22 10:35:00,
2013-12-22 02:36:00,19.8,14.4,30.09,NNE,22,0.0,0.0,79,0.00,,SKC,0.00,VWS V14.00,2013-12-22 10:36:00,
2013-12-22 02:37:00,19.8,14.4,30.09,NNE,22,0.0,0.0,79,0.00,,SKC,0.00,VWS V14.00,2013-12-22 10:37:00,
2013-12-22 02:40:00,19.6,13.9,30.09,NNE,22,0.0,0.0,78,0.00,,SKC,0.00,VWS V14.00,2013-12-22 10:40:00,
2013-12-22 02:41:00,19.4,13.7,30.09,NNE,22,0.0,0.0,78,0.00,,SKC,0.00,VWS V14.00,2013-12-22 10:41:00,
2013-12-22 02:42:00,19.4,13.7,30.09,NNE,22,0.0,0.0,78,0.00,,SKC,0.00,VWS V14.00,2013-12-22 10:42:00,
2013-12-22 02:45:00,19.4,13.7,30.09,NNE,22,0.0,0.0,78,0.00,,SKC,0.00,VWS V14.00,2013-12-22 10:45:00,
2013-12-22 02:46:00,19.4,13.7,30.09,NNE,22,0.0,0.0,78,0.00,,SKC,0.00,VWS V14.00,2013-12-22 10:46:00,
2013-12-22 02:47:00,19.4,13.7,30.09,NNE,22,0.0,0.0,78,0.00,,SKC,0.00,VWS V14.00,2013-12-22 10:47:00,
2013-12-22 02:50:00,19.4,13.7,30.09,NNE,22,0.0,0.0,78,0.00,,SKC,0.00,VWS V14.00,2013-12-22 10:50:00,
2013-12-22 02:52:00,19.3,13.5,30.09,NNE,22,0.0,0.0,78,0.00,,SKC,0.00,VWS V14.00,2013-12-22 10:52:00,
2013-12-22 02:53:00,19.3,13.5,30.09,NNE,22,0.0,0.0,78,0.00,,SKC,0.00,VWS V14.00,2013-12-22 10:53:00,
2013-12-22 02:55:00,19.4,13.7,30.09,SW,225,2.5,2.5,78,0.00,,SKC,0.00,VWS V14.00,2013-12-22 10:55:00,
2013-12-22 02:57:00,19.4,13.7,30.09,SW,225,0.0,0.0,78,0.00,,SKC,0.00,VWS V14.00,2013-12-22 10:57:00,
2013-12-22 02:58:00,19.4,13.7,30.09,SW,225,0.0,0.0,78,0.00,,SKC,0.00,VWS V14.00,2013-12-22 10:58:00,
2013-12-22 03:00:00,19.3,13.5,30.09,SW,225,0.0,0.0,78,0.00,,SKC,0.00,VWS V14.00,2013-12-22 11:00:00,
2013-12-22 03:02:00,19.1,13.1,30.09,SW,225,0.0,0.0,77,0.00,,SKC,0.00,VWS V14.00,2013-12-22 11:02:00,
2013-12-22 03:03:00,19.1,13.1,30.09,SW,225,0.0,0.0,77,0.00,,SKC,0.00,VWS V14.00,2013-12-22 11:03:00,
2013-12-22 03:05:00,19.3,13.2,30.09,WSW,248,0.0,0.0,77,0.00,,SKC,0.00,VWS V14.00,2013-12-22 11:05:00,
2013-12-22 03:07:00,19.3,13.5,30.09,West,270,0.0,0.0,78,0.00,,SKC,0.00,VWS V14.00,2013-12-22 11:07:00,
2013-12-22 03:08:00,19.4,13.7,30.09,West,270,0.0,0.0,78,0.00,,SKC,0.00,VWS V14.00,2013-12-22 11:08:00,
2013-12-22 03:10:00,19.4,14.0,30.09,NNW,338,0.0,0.0,79,0.00,,SKC,0.00,VWS V14.00,2013-12-22 11:10:00,
2013-12-22 03:12:00,19.4,14.0,30.09,NNW,338,0.0,0.0,79,0.00,,SKC,0.00,VWS V14.00,2013-12-22 11:12:00,
2013-12-22 03:13:00,19.4,14.0,30.12,NNW,338,0.0,0.0,79,0.00,,SKC,0.00,VWS V14.00,2013-12-22 11:13:00,
2013-12-22 03:14:00,19.4,14.0,30.12,NNW,338,0.0,0.0,79,0.00,,SKC,0.00,VWS V14.00,2013-12-22 11:14:00,
2013-12-22 03:16:00,19.3,13.8,30.12,NNW,338,0.0,0.0,79,0.00,,SKC,0.00,VWS V14.00,2013-12-22 11:16:00,
2013-12-22 03:17:00,19.3,13.8,30.12,NNW,338,0.0,0.0,79,0.00,,SKC,0.00,VWS V14.00,2013-12-22 11:17:00,
2013-12-22 03:18:00,19.3,13.8,30.12,NNW,338,0.0,0.0,79,0.00,,SKC,0.00,VWS V14.00,2013-12-22 11:18:00,
2013-12-22 03:19:00,19.4,14.0,30.12,NNW,338,0.0,0.0,79,0.00,,SKC,0.00,VWS V14.00,2013-12-22 11:19:00,
2013-12-22 03:21:00,19.4,14.0,30.12,NNW,338,0.0,0.0,79,0.00,,SKC,0.00,VWS V14.00,2013-12-22 11:21:00,
2013-12-22 03:23:00,19.6,14.5,30.12,NNW,338,0.0,0.0,80,0.00,,SKC,0.00,VWS V14.00,2013-12-22 11:23:00,
2013-12-22 03:24:00,19.6,14.5,30.12,NNW,338,0.0,0.0,80,0.00,,SKC,0.00,VWS V14.00,2013-12-22 11:24:00,
2013-12-22 03:26:00,19.8,14.6,30.12,SW,225,0.0,0.0,80,0.00,,SKC,0.00,VWS V14.00,2013-12-22 11:26:00,
2013-12-22 03:28:00,20.0,14.8,30.12,North,0,0.0,0.0,80,0.00,,SKC,0.00,VWS V14.00,2013-12-22 11:28:00,
2013-12-22 03:29:00,20.2,15.0,30.09,North,0,0.0,0.0,80,0.00,,SKC,0.00,VWS V14.00,2013-12-22 11:29:00,
2013-12-22 03:31:00,20.3,15.2,30.09,WSW,248,1.1,1.1,80,0.00,,SKC,0.00,VWS V14.00,2013-12-22 11:31:00,
2013-12-22 03:33:00,20.7,15.8,30.09,WSW,248,0.0,0.0,81,0.00,,SKC,0.00,VWS V14.00,2013-12-22 11:33:00,
2013-12-22 03:34:00,20.9,16.0,30.09,WSW,248,0.0,0.0,81,0.00,,SKC,0.00,VWS V14.00,2013-12-22 11:34:00,
2013-12-22 03:35:00,21.1,16.2,30.09,WSW,248,0.0,0.0,81,0.00,,SKC,0.00,VWS V14.00,2013-12-22 11:35:00,
2013-12-22 03:36:00,21.1,16.2,30.09,WSW,248,0.0,0.0,81,0.00,,SKC,0.00,VWS V14.00,2013-12-22 11:36:00,
2013-12-22 03:38:00,21.1,16.2,30.09,WSW,248,0.0,0.0,81,0.00,,SKC,0.00,VWS V14.00,2013-12-22 11:38:00,
2013-12-22 03:39:00,21.2,16.3,30.09,WSW,248,2.0,2.0,81,0.00,,SKC,0.00,VWS V14.00,2013-12-22 11:39:00,
2013-12-22 03:40:00,21.4,16.5,30.09,SSE,158,2.7,2.7,81,0.00,,SKC,0.00,VWS V14.00,2013-12-22 11:40:00,
2013-12-22 03:41:00,21.6,16.7,30.09,SSE,158,2.5,2.5,81,0.00,,SKC,0.00,VWS V14.00,2013-12-22 11:41:00,
2013-12-22 03:42:00,21.6,16.7,30.09,SSE,158,2.5,2.5,81,0.00,,SKC,0.00,VWS V14.00,2013-12-22 11:42:00,
2013-12-22 03:44:00,22.0,17.0,30.09,SSE,158,2.9,2.9,81,0.00,,SKC,0.00,VWS V14.00,2013-12-22 11:44:00,
2013-12-22 03:45:00,22.0,17.0,30.09,SSW,202,2.0,2.0,81,0.00,,SKC,0.00,VWS V14.00,2013-12-22 11:45:00,
2013-12-22 03:46:00,22.1,17.5,30.09,SSW,202,1.6,1.6,82,0.00,,SKC,0.00,VWS V14.00,2013-12-22 11:46:00,
2013-12-22 03:47:00,22.1,17.5,30.09,SSW,202,2.2,2.2,82,0.00,,SKC,0.00,VWS V14.00,2013-12-22 11:47:00,
2013-12-22 03:49:00,22.1,17.8,30.09,South,180,1.3,1.3,83,0.00,,SKC,0.00,VWS V14.00,2013-12-22 11:49:00,
2013-12-22 03:50:00,22.1,17.8,30.09,South,180,2.5,2.5,83,0.00,,SKC,0.00,VWS V14.00,2013-12-22 11:50:00,
2013-12-22 03:51:00,22.1,17.8,30.09,South,180,2.7,2.7,83,0.00,,SKC,0.00,VWS V14.00,2013-12-22 11:51:00,
2013-12-22 03:52:00,22.3,18.0,30.09,South,180,2.0,2.0,83,0.00,,SKC,0.00,VWS V14.00,2013-12-22 11:52:00,
2013-12-22 03:54:00,22.3,18.2,30.09,South,180,1.6,1.6,84,0.00,,SKC,0.00,VWS V14.00,2013-12-22 11:54:00,
2013-12-22 03:55:00,22.3,18.2,30.09,SSW,202,0.0,0.0,84,0.00,,SKC,0.00,VWS V14.00,2013-12-22 11:55:00,
2013-12-22 03:57:00,22.3,18.5,30.09,SSW,202,2.0,2.0,85,0.00,,SKC,0.00,VWS V14.00,2013-12-22 11:57:00,
2013-12-22 03:59:00,22.5,18.7,30.09,SW,225,2.9,2.9,85,0.00,,SKC,0.00,VWS V14.00,2013-12-22 11:59:00,
2013-12-22 04:00:00,22.5,18.7,30.09,SW,225,2.7,2.7,85,0.00,,SKC,0.00,VWS V14.00,2013-12-22 12:00:00,
2013-12-22 04:02:00,22.7,19.1,30.09,SW,225,2.9,2.9,86,0.00,,SKC,0.00,VWS V14.00,2013-12-22 12:02:00,
2013-12-22 04:03:00,22.9,19.3,30.09,WSW,248,4.3,4.3,86,0.00,,SKC,0.00,VWS V14.00,2013-12-22 12:03:00,
2013-12-22 04:04:00,23.0,19.5,30.09,West,270,0.9,0.9,86,0.00,,SKC,0.00,VWS V14.00,2013-12-22 12:04:00,
2013-12-22 04:05:00,23.0,19.5,30.09,West,270,0.0,0.0,86,0.00,,SKC,0.00,VWS V14.00,2013-12-22 12:05:00,
2013-12-22 04:07:00,23.0,19.8,30.09,WNW,292,0.0,0.0,87,0.00,,SKC,0.00,VWS V14.00,2013-12-22 12:07:00,
2013-12-22 04:08:00,23.0,19.8,30.09,WNW,292,0.0,0.0,87,0.00,,SKC,0.00,VWS V14.00,2013-12-22 12:08:00,
2013-12-22 04:10:00,22.9,19.3,30.09,WNW,292,0.0,0.0,86,0.00,,SKC,0.00,VWS V14.00,2013-12-22 12:10:00,
2013-12-22 04:11:00,22.9,19.3,30.09,WNW,292,0.0,0.0,86,0.00,,SKC,0.00,VWS V14.00,2013-12-22 12:11:00,
2013-12-22 04:12:00,22.5,18.7,30.09,WNW,292,0.0,0.0,85,0.00,,SKC,0.00,VWS V14.00,2013-12-22 12:12:00,
2013-12-22 04:13:00,22.5,18.7,30.09,WNW,292,0.0,0.0,85,0.00,,SKC,0.00,VWS V14.00,2013-12-22 12:13:00,
2013-12-22 04:15:00,22.7,18.9,30.09,WNW,292,0.0,0.0,85,0.00,,SKC,0.00,VWS V14.00,2013-12-22 12:15:00,
2013-12-22 04:16:00,22.5,18.7,30.09,WNW,292,0.0,0.0,85,0.00,,SKC,0.00,VWS V14.00,2013-12-22 12:16:00,
2013-12-22 04:18:00,22.5,18.7,30.09,WNW,292,0.0,0.0,85,0.00,,SKC,0.00,VWS V14.00,2013-12-22 12:18:00,
2013-12-22 04:20:00,22.5,18.4,30.09,WNW,292,0.0,0.0,84,0.00,,SKC,0.00,VWS V14.00,2013-12-22 12:20:00,
2013-12-22 04:21:00,22.5,18.4,30.09,WNW,292,0.0,0.0,84,0.00,,SKC,0.00,VWS V14.00,2013-12-22 12:21:00,
2013-12-22 04:23:00,22.7,18.6,30.09,WNW,292,0.0,0.0,84,0.00,,SKC,0.00,VWS V14.00,2013-12-22 12:23:00,
2013-12-22 04:25:00,22.7,18.6,30.09,WNW,292,0.0,0.0,84,0.00,,SKC,0.00,VWS V14.00,2013-12-22 12:25:00,
2013-12-22 04:26:00,22.7,18.6,30.09,WNW,292,0.0,0.0,84,0.00,,SKC,0.00,VWS V14.00,2013-12-22 12:26:00,
2013-12-22 04:28:00,22.5,18.4,30.09,WNW,292,0.0,0.0,84,0.00,,SKC,0.00,VWS V14.00,2013-12-22 12:28:00,
2013-12-22 04:30:00,22.1,17.8,30.12,North,0,2.7,2.7,83,0.00,,SKC,0.00,VWS V14.00,2013-12-22 12:30:00,
2013-12-22 04:31:00,22.1,17.8,30.12,North,0,0.0,0.0,83,0.00,,SKC,0.00,VWS V14.00,2013-12-22 12:31:00,
2013-12-22 04:33:00,21.8,16.9,30.12,North,0,0.0,0.0,81,0.00,,SKC,0.00,VWS V14.00,2013-12-22 12:33:00,
2013-12-22 04:35:00,21.8,16.6,30.12,North,0,0.0,0.0,80,0.00,,SKC,0.00,VWS V14.00,2013-12-22 12:35:00,
2013-12-22 04:36:00,21.8,16.6,30.12,North,0,0.0,0.0,80,0.00,,SKC,0.00,VWS V14.00,2013-12-22 12:36:00,
2013-12-22 04:37:00,21.8,16.6,30.12,NNE,22,0.0,0.0,80,0.00,,SKC,0.00,VWS V14.00,2013-12-22 12:37:00,
2013-12-22 04:38:00,21.8,16.6,30.12,NNE,22,0.0,0.0,80,0.00,,SKC,0.00,VWS V14.00,2013-12-22 12:38:00,
2013-12-22 04:41:00,21.8,16.6,30.12,NNE,22,0.0,0.0,80,0.00,,SKC,0.00,VWS V14.00,2013-12-22 12:41:00,
2013-12-22 04:42:00,21.6,16.4,30.12,NNE,22,0.0,0.0,80,0.00,,SKC,0.00,VWS V14.00,2013-12-22 12:42:00,
2013-12-22 04:44:00,21.8,16.6,30.12,NE,45,0.0,0.0,80,0.00,,SKC,0.00,VWS V14.00,2013-12-22 12:44:00,
2013-12-22 04:46:00,21.8,16.6,30.12,NE,45,0.0,0.0,80,0.00,,SKC,0.00,VWS V14.00,2013-12-22 12:46:00,
2013-12-22 04:47:00,21.8,16.6,30.12,NE,45,0.0,0.0,80,0.00,,SKC,0.00,VWS V14.00,2013-12-22 12:47:00,
2013-12-22 04:49:00,22.0,16.8,30.12,NE,45,0.0,0.0,80,0.00,,SKC,0.00,VWS V14.00,2013-12-22 12:49:00,
2013-12-22 04:51:00,22.0,17.0,30.12,NE,45,0.0,0.0,81,0.00,,SKC,0.00,VWS V14.00,2013-12-22 12:51:00,
2013-12-22 04:52:00,21.8,16.6,30.12,North,0,0.0,0.0,80,0.00,,SKC,0.00,VWS V14.00,2013-12-22 12:52:00,
2013-12-22 04:54:00,21.6,16.7,30.12,North,0,0.0,0.0,81,0.00,,SKC,0.00,VWS V14.00,2013-12-22 12:54:00,
2013-12-22 04:55:00,21.6,16.7,30.12,North,0,0.0,0.0,81,0.00,,SKC,0.00,VWS V14.00,2013-12-22 12:55:00,
2013-12-22 04:56:00,21.6,16.4,30.12,North,0,0.0,0.0,80,0.00,,SKC,0.00,VWS V14.00,2013-12-22 12:56:00,
2013-12-22 04:57:00,21.6,16.4,30.12,SE,135,0.0,0.0,80,0.00,,SKC,0.00,VWS V14.00,2013-12-22 12:57:00,
2013-12-22 04:58:00,21.4,16.2,30.12,SE,135,0.0,0.0,80,0.00,,SKC,0.00,VWS V14.00,2013-12-22 12:58:00,
2013-12-22 04:59:00,21.4,16.2,30.12,East,90,0.0,0.0,80,0.00,,SKC,0.00,VWS V14.00,2013-12-22 12:59:00,
2013-12-22 05:00:00,21.4,16.2,30.12,East,90,0.0,0.0,80,0.00,,SKC,0.00,VWS V14.00,2013-12-22 13:00:00,
2013-12-22 05:01:00,21.4,16.2,30.12,SE,135,0.0,0.0,80,0.00,,SKC,0.00,VWS V14.00,2013-12-22 13:01:00,
2013-12-22 05:02:00,21.2,16.0,30.12,SE,135,0.0,0.0,80,0.00,,SKC,0.00,VWS V14.00,2013-12-22 13:02:00,
2013-12-22 05:03:00,21.2,16.0,30.12,SE,135,0.0,0.0,80,0.00,,SKC,0.00,VWS V14.00,2013-12-22 13:03:00,
2013-12-22 05:04:00,21.2,16.0,30.12,SE,135,0.0,0.0,80,0.00,,SKC,0.00,VWS V14.00,2013-12-22 13:04:00,
2013-12-22 05:05:00,21.2,16.0,30.12,SE,135,0.0,0.0,80,0.00,,SKC,0.00,VWS V14.00,2013-12-22 13:05:00,
2013-12-22 05:06:00,21.1,15.9,30.12,SE,135,0.0,0.0,80,0.00,,SKC,0.00,VWS V14.00,2013-12-22 13:06:00,
2013-12-22 05:07:00,21.1,15.9,30.12,SE,135,0.0,0.0,80,0.00,,SKC,0.00,VWS V14.00,2013-12-22 13:07:00,
2013-12-22 05:08:00,21.1,15.6,30.12,SE,135,0.0,0.0,79,0.00,,SKC,0.00,VWS V14.00,2013-12-22 13:08:00,
2013-12-22 05:09:00,21.1,15.6,30.12,SE,135,0.0,0.0,79,0.00,,SKC,0.00,VWS V14.00,2013-12-22 13:09:00,
2013-12-22 05:11:00,21.1,15.6,30.12,ESE,112,0.0,0.0,79,0.00,,SKC,0.00,VWS V14.00,2013-12-22 13:11:00,
2013-12-22 05:12:00,20.9,15.4,30.12,ESE,112,0.0,0.0,79,0.00,,SKC,0.00,VWS V14.00,2013-12-22 13:12:00,
2013-12-22 05:13:00,20.9,15.4,30.12,ESE,112,0.0,0.0,79,0.00,,SKC,0.00,VWS V14.00,2013-12-22 13:13:00,
2013-12-22 05:14:00,20.9,15.4,30.12,ESE,112,0.0,0.0,79,0.00,,SKC,0.00,VWS V14.00,2013-12-22 13:14:00,
2013-12-22 05:16:00,20.9,15.7,30.12,ESE,112,0.0,0.0,80,0.00,,SKC,0.00,VWS V14.00,2013-12-22 13:16:00,
2013-12-22 05:17:00,20.9,15.7,30.12,ESE,112,0.0,0.0,80,0.00,,SKC,0.00,VWS V14.00,2013-12-22 13:17:00,
2013-12-22 05:18:00,20.9,15.4,30.12,ESE,112,0.0,0.0,79,0.00,,SKC,0.00,VWS V14.00,2013-12-22 13:18:00,
2013-12-22 05:19:00,20.7,15.2,30.12,ESE,112,0.0,0.0,79,0.00,,SKC,0.00,VWS V14.00,2013-12-22 13:19:00,
2013-12-22 05:21:00,20.9,15.4,30.12,SE,135,2.5,2.5,79,0.00,,SKC,0.00,VWS V14.00,2013-12-22 13:21:00,
2013-12-22 05:22:00,21.1,15.9,30.12,South,180,2.7,2.7,80,0.00,,SKC,0.00,VWS V14.00,2013-12-22 13:22:00,
2013-12-22 05:23:00,21.2,16.0,30.12,SE,135,2.5,2.5,80,0.00,,SKC,0.00,VWS V14.00,2013-12-22 13:23:00,
2013-12-22 05:24:00,21.2,16.0,30.12,South,180,2.9,2.9,80,0.00,,SKC,0.00,VWS V14.00,2013-12-22 13:24:00,
2013-12-22 05:26:00,21.4,16.2,30.12,SSE,158,2.9,2.9,80,0.00,,SKC,0.00,VWS V14.00,2013-12-22 13:26:00,
2013-12-22 05:27:00,21.6,16.7,30.12,South,180,3.8,3.8,81,0.00,,SKC,0.00,VWS V14.00,2013-12-22 13:27:00,
2013-12-22 05:28:00,21.8,16.6,30.12,SE,135,2.9,2.9,80,0.00,,SKC,0.00,VWS V14.00,2013-12-22 13:28:00,
2013-12-22 05:29:00,21.8,16.9,30.12,South,180,3.8,3.8,81,0.00,,SKC,0.00,VWS V14.00,2013-12-22 13:29:00,
2013-12-22 05:30:00,21.8,16.9,30.12,South,180,3.8,3.8,81,0.00,,SKC,0.00,VWS V14.00,2013-12-22 13:30:00,
2013-12-22 05:31:00,21.8,16.9,30.12,SSE,158,3.4,3.4,81,0.00,,SKC,0.00,VWS V14.00,2013-12-22 13:31:00,
2013-12-22 05:32:00,21.8,16.9,30.12,SSE,158,1.6,1.6,81,0.00,,SKC,0.00,VWS V14.00,2013-12-22 13:32:00,
2013-12-22 05:33:00,21.6,16.7,30.12,SSE,158,3.8,3.8,81,0.00,,SKC,0.00,VWS V14.00,2013-12-22 13:33:00,
2013-12-22 05:35:00,21.4,16.5,30.12,SSE,158,3.4,3.4,81,0.00,,SKC,0.00,VWS V14.00,2013-12-22 13:35:00,
2013-12-22 05:36:00,21.2,16.3,30.12,South,180,3.8,3.8,81,0.00,,SKC,0.00,VWS V14.00,2013-12-22 13:36:00,
2013-12-22 05:37:00,21.2,16.3,30.12,South,180,2.2,2.2,81,0.00,,SKC,0.00,VWS V14.00,2013-12-22 13:37:00,
2013-12-22 05:39:00,21.1,16.2,30.12,South,180,2.2,2.2,81,0.00,,SKC,0.00,VWS V14.00,2013-12-22 13:39:00,
2013-12-22 05:40:00,20.9,16.0,30.12,South,180,1.1,1.1,81,0.00,,SKC,0.00,VWS V14.00,2013-12-22 13:40:00,
2013-12-22 05:41:00,20.9,16.0,30.12,South,180,0.0,0.0,81,0.00,,SKC,0.00,VWS V14.00,2013-12-22 13:41:00,
2013-12-22 05:42:00,20.9,16.0,30.12,South,180,0.0,0.0,81,0.00,,SKC,0.00,VWS V14.00,2013-12-22 13:42:00,
2013-12-22 05:44:00,20.7,15.5,30.12,SE,135,2.7,2.7,80,0.00,,SKC,0.00,VWS V14.00,2013-12-22 13:44:00,
2013-12-22 05:46:00,20.7,15.5,30.12,East,90,0.0,0.0,80,0.00,,SKC,0.00,VWS V14.00,2013-12-22 13:46:00,
2013-12-22 05:47:00,20.5,15.3,30.12,ENE,68,0.0,0.0,80,0.00,,SKC,0.00,VWS V14.00,2013-12-22 13:47:00,
2013-12-22 05:49:00,20.3,15.2,30.12,ENE,68,0.0,0.0,80,0.00,,SKC,0.00,VWS V14.00,2013-12-22 13:49:00,
2013-12-22 05:51:00,20.3,15.2,30.12,ENE,68,0.0,0.0,80,0.00,,SKC,0.00,VWS V14.00,2013-12-22 13:51:00,
2013-12-22 05:52:00,20.3,14.9,30.12,ENE,68,0.0,0.0,79,0.00,,SKC,0.00,VWS V14.00,2013-12-22 13:52:00,
2013-12-22 05:53:00,20.2,14.7,30.12,East,90,0.0,0.0,79,0.00,,SKC,0.00,VWS V14.00,2013-12-22 13:53:00,
2013-12-22 05:54:00,20.2,14.7,30.12,ENE,68,0.0,0.0,79,0.00,,SKC,0.00,VWS V14.00,2013-12-22 13:54:00,
2013-12-22 05:56:00,20.2,14.7,30.12,East,90,0.0,0.0,79,0.00,,SKC,0.00,VWS V14.00,2013-12-22 13:56:00,
2013-12-22 05:57:00,20.0,14.5,30.12,East,90,0.0,0.0,79,0.00,,SKC,0.00,VWS V14.00,2013-12-22 13:57:00,
2013-12-22 05:58:00,20.0,14.5,30.12,ENE,68,0.0,0.0,79,0.00,,SKC,0.00,VWS V14.00,2013-12-22 13:58:00,
2013-12-22 05:59:00,20.0,14.5,30.12,East,90,0.0,0.0,79,0.00,,SKC,0.00,VWS V14.00,2013-12-22 13:59:00,
2013-12-22 06:01:00,19.8,14.6,30.12,ENE,68,0.0,0.0,80,0.00,,SKC,0.00,VWS V14.00,2013-12-22 14:01:00,
2013-12-22 06:02:00,19.8,14.6,30.12,ENE,68,0.0,0.0,80,0.00,,SKC,0.00,VWS V14.00,2013-12-22 14:02:00,
2013-12-22 06:03:00,20.0,14.5,30.12,ENE,68,0.0,0.0,79,0.00,,SKC,0.00,VWS V14.00,2013-12-22 14:03:00,
2013-12-22 06:04:00,19.8,14.6,30.12,ENE,68,0.0,0.0,80,0.00,,SKC,0.00,VWS V14.00,2013-12-22 14:04:00,
2013-12-22 06:07:00,19.8,14.6,30.12,ENE,68,0.0,0.0,80,0.00,,SKC,0.00,VWS V14.00,2013-12-22 14:07:00,
2013-12-22 06:08:00,19.8,14.6,30.12,ENE,68,0.0,0.0,80,0.00,,SKC,0.00,VWS V14.00,2013-12-22 14:08:00,
2013-12-22 06:09:00,19.6,14.5,30.12,ENE,68,0.0,0.0,80,0.00,,SKC,0.00,VWS V14.00,2013-12-22 14:09:00,
2013-12-22 06:12:00,19.6,14.2,30.12,ENE,68,0.0,0.0,79,0.00,,SKC,0.00,VWS V14.00,2013-12-22 14:12:00,
2013-12-22 06:13:00,19.6,14.2,30.12,NE,45,0.0,0.0,79,0.00,,SKC,0.00,VWS V14.00,2013-12-22 14:13:00,
2013-12-22 06:15:00,19.6,14.2,30.15,NE,45,0.0,0.0,79,0.00,,SKC,0.00,VWS V14.00,2013-12-22 14:15:00,
2013-12-22 06:17:00,19.8,14.6,30.15,ENE,68,0.0,0.0,80,0.00,,SKC,0.00,VWS V14.00,2013-12-22 14:17:00,
2013-12-22 06:18:00,19.8,14.6,30.15,ENE,68,0.0,0.0,80,0.00,,SKC,0.00,VWS V14.00,2013-12-22 14:18:00,
2013-12-22 06:20:00,19.8,14.6,30.15,ENE,68,0.0,0.0,80,0.00,,SKC,0.00,VWS V14.00,2013-12-22 14:20:00,
2013-12-22 06:22:00,19.8,14.6,30.15,East,90,0.0,0.0,80,0.00,,SKC,0.00,VWS V14.00,2013-12-22 14:22:00,
2013-12-22 06:23:00,19.8,14.6,30.15,East,90,0.0,0.0,80,0.00,,SKC,0.00,VWS V14.00,2013-12-22 14:23:00,
2013-12-22 06:24:00,19.8,14.6,30.15,SE,135,0.0,0.0,80,0.00,,SKC,0.00,VWS V14.00,2013-12-22 14:24:00,
2013-12-22 06:25:00,19.8,14.6,30.15,ESE,112,0.0,0.0,80,0.00,,SKC,0.00,VWS V14.00,2013-12-22 14:25:00,
2013-12-22 06:28:00,20.2,15.0,30.15,ESE,112,0.0,0.0,80,0.00,,SKC,0.00,VWS V14.00,2013-12-22 14:28:00,
2013-12-22 06:29:00,20.2,15.0,30.15,ESE,112,0.0,0.0,80,0.00,,SKC,0.00,VWS V14.00,2013-12-22 14:29:00,
2013-12-22 06:30:00,20.2,15.0,30.15,East,90,0.0,0.0,80,0.00,,SKC,0.00,VWS V14.00,2013-12-22 14:30:00,
2013-12-22 06:33:00,20.0,14.8,30.15,NNE,22,0.0,0.0,80,0.00,,SKC,0.00,VWS V14.00,2013-12-22 14:33:00,
2013-12-22 06:34:00,20.2,15.0,30.15,NE,45,0.0,0.0,80,0.00,,SKC,0.00,VWS V14.00,2013-12-22 14:34:00,
2013-12-22 06:36:00,20.2,15.0,30.15,NE,45,0.0,0.0,80,0.00,,SKC,0.00,VWS V14.00,2013-12-22 14:36:00,
2013-12-22 06:38:00,20.2,15.0,30.15,NE,45,0.0,0.0,80,0.00,,SKC,0.00,VWS V14.00,2013-12-22 14:38:00,
2013-12-22 06:39:00,20.2,14.7,30.15,NE,45,0.0,0.0,79,0.00,,SKC,0.00,VWS V14.00,2013-12-22 14:39:00,
2013-12-22 06:41:00,20.3,14.9,30.15,NNE,22,0.0,0.0,79,0.00,,SKC,0.00,VWS V14.00,2013-12-22 14:41:00,
2013-12-22 06:43:00,20.3,15.2,30.15,NNE,22,0.0,0.0,80,0.00,,SKC,0.00,VWS V14.00,2013-12-22 14:43:00,
2013-12-22 06:44:00,20.3,15.2,30.15,NE,45,0.0,0.0,80,0.00,,SKC,0.00,VWS V14.00,2013-12-22 14:44:00,
2013-12-22 06:46:00,20.3,15.2,30.15,NE,45,0.0,0.0,80,0.00,,SKC,0.00,VWS V14.00,2013-12-22 14:46:00,
2013-12-22 06:48:00,20.3,15.2,30.15,NE,45,0.0,0.0,80,0.00,,SKC,0.00,VWS V14.00,2013-12-22 14:48:00,
2013-12-22 06:49:00,20.3,15.2,30.15,NE,45,0.0,0.0,80,0.00,,SKC,0.00,VWS V14.00,2013-12-22 14:49:00,
2013-12-22 06:52:00,20.5,15.3,30.15,NE,45,0.0,0.0,80,0.00,,SKC,0.00,VWS V14.00,2013-12-22 14:52:00,
2013-12-22 06:54:00,20.7,15.5,30.15,NE,45,0.0,0.0,80,0.00,,SKC,0.00,VWS V14.00,2013-12-22 14:54:00,
2013-12-22 06:55:00,20.7,15.5,30.15,NE,45,0.0,0.0,80,0.00,,SKC,0.00,VWS V14.00,2013-12-22 14:55:00,
2013-12-22 06:57:00,20.7,15.5,30.15,NE,45,0.0,0.0,80,0.00,,SKC,0.00,VWS V14.00,2013-12-22 14:57:00,
2013-12-22 06:58:00,20.7,15.5,30.15,NE,45,0.0,0.0,80,0.00,,SKC,0.00,VWS V14.00,2013-12-22 14:58:00,
2013-12-22 06:59:00,20.7,15.5,30.15,NE,45,0.0,0.0,80,0.00,,SKC,0.00,VWS V14.00,2013-12-22 14:59:00,
2013-12-22 07:01:00,20.7,15.5,30.15,South,180,0.0,0.0,80,0.00,,SKC,0.00,VWS V14.00,2013-12-22 15:01:00,
2013-12-22 07:03:00,20.5,15.3,30.15,South,180,0.0,0.0,80,0.00,,SKC,0.00,VWS V14.00,2013-12-22 15:03:00,
2013-12-22 07:04:00,20.5,15.1,30.15,South,180,0.0,0.0,79,0.00,,SKC,0.00,VWS V14.00,2013-12-22 15:04:00,
2013-12-22 07:05:00,20.5,15.1,30.15,South,180,0.0,0.0,79,0.00,,SKC,0.00,VWS V14.00,2013-12-22 15:05:00,
2013-12-22 07:06:00,20.5,15.1,30.15,South,180,0.0,0.0,79,0.00,,SKC,0.00,VWS V14.00,2013-12-22 15:06:00,
2013-12-22 07:08:00,20.5,15.1,30.15,South,180,0.0,0.0,79,0.00,,SKC,0.00,VWS V14.00,2013-12-22 15:08:00,
2013-12-22 07:09:00,20.5,15.1,30.15,South,180,0.0,0.0,79,0.00,,SKC,0.00,VWS V14.00,2013-12-22 15:09:00,
2013-12-22 07:10:00,20.5,15.1,30.15,South,180,0.0,0.0,79,0.00,,SKC,0.00,VWS V14.00,2013-12-22 15:10:00,
2013-12-22 07:11:00,20.5,15.1,30.15,South,180,0.0,0.0,79,0.00,,SKC,0.00,VWS V14.00,2013-12-22 15:11:00,
2013-12-22 07:14:00,20.5,15.1,30.15,South,180,0.0,0.0,79,0.00,,SKC,0.00,VWS V14.00,2013-12-22 15:14:00,
2013-12-22 07:15:00,20.5,15.1,30.15,South,180,0.0,0.0,79,0.00,,SKC,0.00,VWS V14.00,2013-12-22 15:15:00,
2013-12-22 07:16:00,20.5,15.1,30.15,South,180,0.0,0.0,79,0.00,,SKC,0.00,VWS V14.00,2013-12-22 15:16:00,
2013-12-22 07:19:00,20.5,15.1,30.15,South,180,0.0,0.0,79,0.00,,SKC,0.00,VWS V14.00,2013-12-22 15:19:00,
2013-12-22 07:20:00,20.5,15.1,30.15,South,180,0.0,0.0,79,0.00,,SKC,0.00,VWS V14.00,2013-12-22 15:20:00,
2013-12-22 07:21:00,20.7,15.2,30.15,South,180,0.0,0.0,79,0.00,,SKC,0.00,VWS V14.00,2013-12-22 15:21:00,
2013-12-22 07:24:00,21.8,16.3,30.15,South,180,0.0,0.0,79,0.00,,SKC,0.00,VWS V14.00,2013-12-22 15:24:00,
2013-12-22 07:25:00,22.0,16.5,30.15,South,180,0.0,0.0,79,0.00,,SKC,0.00,VWS V14.00,2013-12-22 15:25:00,
2013-12-22 07:26:00,22.0,16.8,30.15,South,180,0.0,0.0,80,0.00,,SKC,0.00,VWS V14.00,2013-12-22 15:26:00,
2013-12-22 07:27:00,22.0,16.8,30.15,South,180,0.0,0.0,80,0.00,,SKC,0.00,VWS V14.00,2013-12-22 15:27:00,
2013-12-22 07:29:00,22.1,16.9,30.15,South,180,0.0,0.0,80,0.00,,SKC,0.00,VWS V14.00,2013-12-22 15:29:00,
2013-12-22 07:30:00,22.5,17.3,30.15,South,180,0.0,0.0,80,0.00,,SKC,0.00,VWS V14.00,2013-12-22 15:30:00,
2013-12-22 07:31:00,23.2,18.0,30.15,South,180,0.0,0.0,80,0.00,,SKC,0.00,VWS V14.00,2013-12-22 15:31:00,
2013-12-22 07:32:00,23.4,18.1,30.15,South,180,0.0,0.0,80,0.00,,SKC,0.00,VWS V14.00,2013-12-22 15:32:00,
2013-12-22 07:34:00,22.9,17.6,30.15,South,180,0.0,0.0,80,0.00,,SKC,0.00,VWS V14.00,2013-12-22 15:34:00,
2013-12-22 07:35:00,22.9,17.6,30.15,South,180,0.0,0.0,80,0.00,,SKC,0.00,VWS V14.00,2013-12-22 15:35:00,
2013-12-22 07:36:00,22.5,17.0,30.15,South,180,0.0,0.0,79,0.00,,SKC,0.00,VWS V14.00,2013-12-22 15:36:00,
2013-12-22 07:37:00,22.5,17.0,30.15,South,180,0.0,0.0,79,0.00,,SKC,0.00,VWS V14.00,2013-12-22 15:37:00,
2013-12-22 07:39:00,22.5,16.7,30.15,South,180,1.3,1.3,78,0.00,,SKC,0.00,VWS V14.00,2013-12-22 15:39:00,
2013-12-22 07:40:00,22.5,16.7,30.15,South,180,1.6,1.6,78,0.00,,SKC,0.00,VWS V14.00,2013-12-22 15:40:00,
2013-12-22 07:41:00,22.5,16.7,30.15,South,180,0.0,0.0,78,0.00,,SKC,0.00,VWS V14.00,2013-12-22 15:41:00,
2013-12-22 07:42:00,22.9,17.3,30.15,South,180,0.0,0.0,79,0.00,,SKC,0.00,VWS V14.00,2013-12-22 15:42:00,
2013-12-22 07:45:00,23.6,18.0,30.18,South,180,0.0,0.0,79,0.00,,SKC,0.00,VWS V14.00,2013-12-22 15:45:00,
2013-12-22 07:46:00,23.8,18.2,30.18,South,180,0.0,0.0,79,0.00,,SKC,0.00,VWS V14.00,2013-12-22 15:46:00,
2013-12-22 07:47:00,23.8,18.2,30.18,South,180,0.0,0.0,79,0.00,,SKC,0.00,VWS V14.00,2013-12-22 15:47:00,
2013-12-22 07:50:00,23.9,18.7,30.18,South,180,0.0,0.0,80,0.00,,SKC,0.00,VWS V14.00,2013-12-22 15:50:00,
2013-12-22 07:51:00,25.4,20.1,30.18,South,180,0.0,0.0,80,0.00,,SKC,0.00,VWS V14.00,2013-12-22 15:51:00,
2013-12-22 07:52:00,26.5,21.1,30.18,ESE,112,0.0,0.0,80,0.00,,SKC,0.00,VWS V14.00,2013-12-22 15:52:00,
2013-12-22 07:53:00,27.2,21.8,30.18,ENE,68,1.6,1.6,80,0.00,,SKC,0.00,VWS V14.00,2013-12-22 15:53:00,
2013-12-22 07:55:00,28.4,23.1,30.18,ENE,68,0.0,0.0,80,0.00,,SKC,0.00,VWS V14.00,2013-12-22 15:55:00,
2013-12-22 07:56:00,29.0,23.3,30.18,ENE,68,0.0,0.0,79,0.00,,SKC,0.00,VWS V14.00,2013-12-22 15:56:00,
2013-12-22 07:57:00,29.0,23.3,30.18,ENE,68,0.0,0.0,79,0.00,,SKC,0.00,VWS V14.00,2013-12-22 15:57:00,
2013-12-22 07:58:00,28.1,22.1,30.18,ENE,68,0.0,0.0,78,0.00,,SKC,0.00,VWS V14.00,2013-12-22 15:58:00,
2013-12-22 08:00:00,27.4,20.8,30.18,ENE,68,0.0,0.0,76,0.00,,SKC,0.00,VWS V14.00,2013-12-22 16:00:00,
2013-12-22 08:01:00,27.2,20.3,30.18,ENE,68,0.0,0.0,75,0.00,,SKC,0.00,VWS V14.00,2013-12-22 16:01:00,
2013-12-22 08:02:00,27.2,20.3,30.18,ENE,68,0.0,0.0,75,0.00,,SKC,0.00,VWS V14.00,2013-12-22 16:02:00,
2013-12-22 08:03:00,27.4,20.5,30.18,ENE,68,0.0,0.0,75,0.00,,SKC,0.00,VWS V14.00,2013-12-22 16:03:00,
2013-12-22 08:05:00,28.6,21.7,30.18,ENE,68,0.0,0.0,75,0.00,,SKC,0.00,VWS V14.00,2013-12-22 16:05:00,
2013-12-22 08:06:00,29.3,22.7,30.18,ENE,68,0.0,0.0,76,0.00,,SKC,0.00,VWS V14.00,2013-12-22 16:06:00,
2013-12-22 08:07:00,30.2,23.6,30.18,ENE,68,0.0,0.0,76,0.00,,SKC,0.00,VWS V14.00,2013-12-22 16:07:00,
2013-12-22 08:08:00,32.0,25.3,30.18,ENE,68,0.0,0.0,76,0.00,,SKC,0.00,VWS V14.00,2013-12-22 16:08:00,
2013-12-22 08:10:00,33.1,26.1,30.18,ENE,68,0.0,0.0,75,0.00,,SKC,0.00,VWS V14.00,2013-12-22 16:10:00,
2013-12-22 08:12:00,33.8,26.4,30.18,ENE,68,0.0,0.0,74,0.00,,SKC,0.00,VWS V14.00,2013-12-22 16:12:00,
2013-12-22 08:13:00,33.8,26.4,30.18,ENE,68,0.0,0.0,74,0.00,,SKC,0.00,VWS V14.00,2013-12-22 16:13:00,
2013-12-22 08:14:00,33.3,24.9,30.18,ENE,68,0.0,0.0,71,0.00,,SKC,0.00,VWS V14.00,2013-12-22 16:14:00,
2013-12-22 08:15:00,32.6,24.2,30.18,East,90,0.0,0.0,71,0.00,,SKC,0.00,VWS V14.00,2013-12-22 16:15:00,
2013-12-22 08:16:00,32.0,23.7,30.18,East,90,0.0,0.0,71,0.00,,SKC,0.00,VWS V14.00,2013-12-22 16:16:00,
2013-12-22 08:17:00,31.5,23.2,30.18,East,90,0.0,0.0,71,0.00,,SKC,0.00,VWS V14.00,2013-12-22 16:17:00,
2013-12-22 08:18:00,31.1,22.9,30.18,East,90,0.0,0.0,71,0.00,,SKC,0.00,VWS V14.00,2013-12-22 16:18:00,
2013-12-22 08:19:00,30.6,22.3,30.18,East,90,0.0,0.0,71,0.00,,SKC,0.00,VWS V14.00,2013-12-22 16:19:00,
2013-12-22 08:20:00,30.2,21.6,30.18,East,90,0.0,0.0,70,0.00,,SKC,0.00,VWS V14.00,2013-12-22 16:20:00,
2013-12-22 08:21:00,30.4,21.8,30.18,East,90,0.0,0.0,70,0.00,,SKC,0.00,VWS V14.00,2013-12-22 16:21:00,
2013-12-22 08:22:00,30.4,22.2,30.18,East,90,0.0,0.0,71,0.00,,SKC,0.00,VWS V14.00,2013-12-22 16:22:00,
2013-12-22 08:23:00,30.2,22.0,30.18,ESE,112,0.0,0.0,71,0.00,,SKC,0.00,VWS V14.00,2013-12-22 16:23:00,
2013-12-22 08:24:00,30.2,22.0,30.18,ESE,112,0.0,0.0,71,0.00,,SKC,0.00,VWS V14.00,2013-12-22 16:24:00,
2013-12-22 08:25:00,29.9,22.0,30.18,East,90,0.0,0.0,72,0.00,,SKC,0.00,VWS V14.00,2013-12-22 16:25:00,
2013-12-22 08:26:00,29.9,22.0,30.18,East,90,0.0,0.0,72,0.00,,SKC,0.00,VWS V14.00,2013-12-22 16:26:00,
2013-12-22 08:27:00,29.7,21.8,30.18,East,90,2.0,2.0,72,0.00,,SKC,0.00,VWS V14.00,2013-12-22 16:27:00,
2013-12-22 08:28:00,29.5,21.6,30.18,ESE,112,0.0,0.0,72,0.00,,SKC,0.00,VWS V14.00,2013-12-22 16:28:00,
2013-12-22 08:29:00,29.3,21.1,30.18,ESE,112,0.0,0.0,71,0.00,,SKC,0.00,VWS V14.00,2013-12-22 16:29:00,
2013-12-22 08:31:00,29.0,20.8,30.18,ESE,112,0.0,0.0,71,0.00,,SKC,0.00,VWS V14.00,2013-12-22 16:31:00,
2013-12-22 08:32:00,28.8,20.6,30.18,East,90,0.0,0.0,71,0.00,,SKC,0.00,VWS V14.00,2013-12-22 16:32:00,
2013-12-22 08:33:00,28.8,20.6,30.18,SE,135,0.0,0.0,71,0.00,,SKC,0.00,VWS V14.00,2013-12-22 16:33:00,
2013-12-22 08:34:00,28.6,20.8,30.18,ESE,112,0.0,0.0,72,0.00,,SKC,0.00,VWS V14.00,2013-12-22 16:34:00,
2013-12-22 08:36:00,28.6,20.4,30.18,ESE,112,0.0,0.0,71,0.00,,SKC,0.00,VWS V14.00,2013-12-22 16:36:00,
2013-12-22 08:37:00,28.6,20.4,30.18,South,180,0.0,0.0,71,0.00,,SKC,0.00,VWS V14.00,2013-12-22 16:37:00,
2013-12-22 08:38:00,28.6,20.4,30.18,South,180,0.0,0.0,71,0.00,,SKC,0.00,VWS V14.00,2013-12-22 16:38:00,
2013-12-22 08:39:00,28.6,20.4,30.18,South,180,0.0,0.0,71,0.00,,SKC,0.00,VWS V14.00,2013-12-22 16:39:00,
2013-12-22 08:40:00,28.6,20.4,30.18,South,180,0.0,0.0,71,0.00,,SKC,0.00,VWS V14.00,2013-12-22 16:40:00,
2013-12-22 08:41:00,28.6,20.4,30.18,East,90,0.0,0.0,71,0.00,,SKC,0.00,VWS V14.00,2013-12-22 16:41:00,
2013-12-22 08:42:00,28.6,20.4,30.18,SE,135,0.0,0.0,71,0.00,,SKC,0.00,VWS V14.00,2013-12-22 16:42:00,
2013-12-22 08:44:00,28.6,20.4,30.18,SE,135,0.0,0.0,71,0.00,,SKC,0.00,VWS V14.00,2013-12-22 16:44:00,
2013-12-22 08:45:00,28.4,20.2,30.18,SSE,158,2.5,2.5,71,0.00,,SKC,0.00,VWS V14.00,2013-12-22 16:45:00,
2013-12-22 08:46:00,28.4,20.2,30.18,SSE,158,0.0,0.0,71,0.00,,SKC,0.00,VWS V14.00,2013-12-22 16:46:00,
2013-12-22 08:48:00,28.4,19.9,30.18,SSE,158,2.7,2.7,70,0.00,,SKC,0.00,VWS V14.00,2013-12-22 16:48:00,
2013-12-22 08:49:00,28.4,19.9,30.18,South,180,3.4,3.4,70,0.00,,SKC,0.00,VWS V14.00,2013-12-22 16:49:00,
2013-12-22 08:50:00,28.4,19.6,30.18,South,180,4.0,4.0,69,0.00,,SKC,0.00,VWS V14.00,2013-12-22 16:50:00,
2013-12-22 08:51:00,28.4,19.2,30.18,SSE,158,3.1,3.1,68,0.00,,SKC,0.00,VWS V14.00,2013-12-22 16:51:00,
2013-12-22 08:53:00,28.3,19.1,30.18,SSE,158,2.9,2.9,68,0.00,,SKC,0.00,VWS V14.00,2013-12-22 16:53:00,
2013-12-22 08:54:00,28.3,19.1,30.18,South,180,2.5,2.5,68,0.00,,SKC,0.00,VWS V14.00,2013-12-22 16:54:00,
2013-12-22 08:55:00,28.4,19.2,30.18,South,180,2.7,2.7,68,0.00,,SKC,0.00,VWS V14.00,2013-12-22 16:55:00,
2013-12-22 08:56:00,28.6,19.4,30.18,SE,135,2.7,2.7,68,0.00,,SKC,0.00,VWS V14.00,2013-12-22 16:56:00,
2013-12-22 08:57:00,28.6,19.4,30.18,SSE,158,2.7,2.7,68,0.00,,SKC,0.00,VWS V14.00,2013-12-22 16:57:00,
2013-12-22 08:58:00,29.2,20.3,30.18,SSE,158,0.0,0.0,69,0.00,,SKC,0.00,VWS V14.00,2013-12-22 16:58:00,
2013-12-22 08:59:00,30.1,21.1,30.18,SSE,158,0.0,0.0,69,0.00,,SKC,0.00,VWS V14.00,2013-12-22 16:59:00,
2013-12-22 09:00:00,30.8,22.2,30.18,SSE,158,0.0,0.0,70,0.00,,SKC,0.00,VWS V14.00,2013-12-22 17:00:00,
2013-12-22 09:01:00,31.3,22.7,30.18,SSE,158,0.0,0.0,70,0.00,,SKC,0.00,VWS V14.00,2013-12-22 17:01:00,
2013-12-22 09:02:00,31.9,23.2,30.18,SSE,158,0.0,0.0,70,0.00,,SKC,0.00,VWS V14.00,2013-12-22 17:02:00,
2013-12-22 09:04:00,32.6,23.5,30.18,SSE,158,0.0,0.0,69,0.00,,SKC,0.00,VWS V14.00,2013-12-22 17:04:00,
2013-12-22 09:05:00,32.9,23.5,30.18,SSE,158,0.0,0.0,68,0.00,,SKC,0.00,VWS V14.00,2013-12-22 17:05:00,
2013-12-22 09:06:00,32.9,23.5,30.18,SSE,158,0.0,0.0,68,0.00,,SKC,0.00,VWS V14.00,2013-12-22 17:06:00,
2013-12-22 09:07:00,31.9,22.2,30.18,SSE,158,0.0,0.0,67,0.00,,SKC,0.00,VWS V14.00,2013-12-22 17:07:00,
2013-12-22 09:09:00,32.0,22.0,30.18,SSE,158,0.0,0.0,66,0.00,,SKC,0.00,VWS V14.00,2013-12-22 17:09:00,
2013-12-22 09:10:00,32.2,22.1,30.18,SSE,158,0.0,0.0,66,0.00,,SKC,0.00,VWS V14.00,2013-12-22 17:10:00,
2013-12-22 09:11:00,32.6,22.5,30.18,SSE,158,0.0,0.0,66,0.00,,SKC,0.00,VWS V14.00,2013-12-22 17:11:00,
2013-12-22 09:12:00,32.6,22.5,30.18,SSE,158,0.0,0.0,66,0.00,,SKC,0.00,VWS V14.00,2013-12-22 17:12:00,
2013-12-22 09:14:00,34.6,23.6,30.18,SSE,158,0.0,0.0,64,0.00,,SKC,0.00,VWS V14.00,2013-12-22 17:14:00,
2013-12-22 09:15:00,35.3,23.6,30.18,SSE,158,0.0,0.0,62,0.00,,SKC,0.00,VWS V14.00,2013-12-22 17:15:00,
2013-12-22 09:16:00,35.6,23.9,30.18,SSE,158,0.0,0.0,62,0.00,,SKC,0.00,VWS V14.00,2013-12-22 17:16:00,
2013-12-22 09:17:00,36.4,23.4,30.18,SSE,158,0.0,0.0,59,0.00,,SKC,0.00,VWS V14.00,2013-12-22 17:17:00,
2013-12-22 09:18:00,36.5,23.6,30.18,SSE,158,0.0,0.0,59,0.00,,SKC,0.00,VWS V14.00,2013-12-22 17:18:00,
2013-12-22 09:19:00,37.3,24.3,30.18,SSE,158,0.0,0.0,59,0.00,,SKC,0.00,VWS V14.00,2013-12-22 17:19:00,
2013-12-22 09:20:00,38.2,25.1,30.18,SSE,158,0.0,0.0,59,0.00,,SKC,0.00,VWS V14.00,2013-12-22 17:20:00,
2013-12-22 09:21:00,38.7,25.6,30.18,South,180,0.0,0.0,59,0.00,,SKC,0.00,VWS V14.00,2013-12-22 17:21:00,
2013-12-22 09:22:00,39.6,26.9,30.18,South,180,0.0,0.0,60,0.00,,SKC,0.00,VWS V14.00,2013-12-22 17:22:00,
2013-12-22 09:23:00,39.8,26.6,30.18,South,180,0.0,0.0,59,0.00,,SKC,0.00,VWS V14.00,2013-12-22 17:23:00,
2013-12-22 09:24:00,40.9,26.0,30.18,South,180,0.0,0.0,55,0.00,,SKC,0.00,VWS V14.00,2013-12-22 17:24:00,
2013-12-22 09:25:00,40.9,26.0,30.18,South,180,0.0,0.0,55,0.00,,SKC,0.00,VWS V14.00,2013-12-22 17:25:00,
2013-12-22 09:27:00,41.2,25.4,30.18,South,180,0.0,0.0,53,0.00,,SKC,0.00,VWS V14.00,2013-12-22 17:27:00,
2013-12-22 09:28:00,41.6,23.9,30.18,South,180,0.0,0.0,49,0.00,,SKC,0.00,VWS V14.00,2013-12-22 17:28:00,
2013-12-22 09:30:00,41.4,24.2,30.18,South,180,0.0,0.0,50,0.00,,SKC,0.00,VWS V14.00,2013-12-22 17:30:00,
2013-12-22 09:32:00,41.0,22.9,30.18,South,180,0.0,0.0,48,0.00,,SKC,0.00,VWS V14.00,2013-12-22 17:32:00,
2013-12-22 09:33:00,40.5,24.3,30.18,SE,135,0.0,0.0,52,0.00,,SKC,0.00,VWS V14.00,2013-12-22 17:33:00,
2013-12-22 09:35:00,40.1,22.0,30.18,SE,135,0.0,0.0,48,0.00,,SKC,0.00,VWS V14.00,2013-12-22 17:35:00,
2013-12-22 09:37:00,40.3,22.2,30.18,SE,135,0.0,0.0,48,0.00,,SKC,0.00,VWS V14.00,2013-12-22 17:37:00,
2013-12-22 09:38:00,40.5,22.4,30.18,SE,135,2.0,2.0,48,0.00,,SKC,0.00,VWS V14.00,2013-12-22 17:38:00,
2013-12-22 09:40:00,40.9,22.2,30.18,SE,135,0.0,0.0,47,0.00,,SKC,0.00,VWS V14.00,2013-12-22 17:40:00,
2013-12-22 09:42:00,40.9,20.1,30.18,East,90,0.0,0.0,43,0.00,,SKC,0.00,VWS V14.00,2013-12-22 17:42:00,
2013-12-22 09:43:00,41.6,22.4,30.18,East,90,0.0,0.0,46,0.00,,SKC,0.00,VWS V14.00,2013-12-22 17:43:00,
2013-12-22 09:45:00,41.9,21.1,30.18,East,90,0.0,0.0,43,0.00,,SKC,0.00,VWS V14.00,2013-12-22 17:45:00,
2013-12-22 09:47:00,41.9,20.0,30.18,East,90,0.0,0.0,41,0.00,,SKC,0.00,VWS V14.00,2013-12-22 17:47:00,
2013-12-22 09:48:00,42.3,20.9,30.18,East,90,0.0,0.0,42,0.00,,SKC,0.00,VWS V14.00,2013-12-22 17:48:00,
2013-12-22 09:50:00,43.6,21.4,30.18,East,90,0.0,0.0,41,0.00,,SKC,0.00,VWS V14.00,2013-12-22 17:50:00,
2013-12-22 09:52:00,43.6,19.6,30.18,WSW,248,4.3,4.3,38,0.00,,SKC,0.00,VWS V14.00,2013-12-22 17:52:00,
2013-12-22 09:53:00,44.1,18.2,30.18,SW,225,4.9,4.9,35,0.00,,SKC,0.00,VWS V14.00,2013-12-22 17:53:00,
2013-12-22 09:55:00,42.5,16.1,30.18,SW,225,3.1,3.1,34,0.00,,SKC,0.00,VWS V14.00,2013-12-22 17:55:00,
2013-12-22 09:57:00,42.5,16.1,30.18,SW,225,2.9,2.9,34,0.00,,SKC,0.00,VWS V14.00,2013-12-22 17:57:00,
2013-12-22 09:58:00,41.9,15.6,30.18,WSW,248,3.4,3.4,34,0.00,,SKC,0.00,VWS V14.00,2013-12-22 17:58:00,
2013-12-22 10:01:00,42.5,16.1,30.21,WSW,248,4.7,4.7,34,0.00,,SKC,0.00,VWS V14.00,2013-12-22 18:01:00,
2013-12-22 10:02:00,42.3,15.9,30.21,SW,225,5.6,5.6,34,0.00,,SKC,0.00,VWS V14.00,2013-12-22 18:02:00,
2013-12-22 10:03:00,42.1,15.1,30.21,SW,225,5.4,5.4,33,0.00,,SKC,0.00,VWS V14.00,2013-12-22 18:03:00,
2013-12-22 10:06:00,41.8,14.1,30.21,SW,225,5.6,5.6,32,0.00,,SKC,0.00,VWS V14.00,2013-12-22 18:06:00,
2013-12-22 10:07:00,41.9,14.9,30.21,WSW,248,3.6,3.6,33,0.00,,SKC,0.00,VWS V14.00,2013-12-22 18:07:00,
2013-12-22 10:08:00,41.8,14.8,30.21,WSW,248,4.3,4.3,33,0.00,,SKC,0.00,VWS V14.00,2013-12-22 18:08:00,
2013-12-22 10:11:00,41.8,14.8,30.21,WSW,248,4.0,4.0,33,0.00,,SKC,0.00,VWS V14.00,2013-12-22 18:11:00,
2013-12-22 10:12:00,42.1,15.1,30.21,WSW,248,4.9,4.9,33,0.00,,SKC,0.00,VWS V14.00,2013-12-22 18:12:00,
2013-12-22 10:13:00,42.1,15.1,30.21,SW,225,5.4,5.4,33,0.00,,SKC,0.00,VWS V14.00,2013-12-22 18:13:00,
2013-12-22 10:14:00,42.1,15.1,30.18,SW,225,4.7,4.7,33,0.00,,SKC,0.00,VWS V14.00,2013-12-22 18:14:00,
2013-12-22 10:16:00,41.9,14.2,30.18,SW,225,4.9,4.9,32,0.00,,SKC,0.00,VWS V14.00,2013-12-22 18:16:00,
2013-12-22 10:17:00,41.9,14.2,30.18,SW,225,5.4,5.4,32,0.00,,SKC,0.00,VWS V14.00,2013-12-22 18:17:00,
2013-12-22 10:18:00,41.8,14.8,30.18,WSW,248,6.3,6.3,33,0.00,,SKC,0.00,VWS V14.00,2013-12-22 18:18:00,
2013-12-22 10:19:00,41.8,14.8,30.18,SW,225,6.0,6.0,33,0.00,,SKC,0.00,VWS V14.00,2013-12-22 18:19:00,
2013-12-22 10:22:00,41.8,15.5,30.18,WSW,248,6.3,6.3,34,0.00,,SKC,0.00,VWS V14.00,2013-12-22 18:22:00,
2013-12-22 10:23:00,41.8,14.1,30.18,SW,225,5.8,5.8,32,0.00,,SKC,0.00,VWS V14.00,2013-12-22 18:23:00,
2013-12-22 10:24:00,41.8,14.1,30.18,WSW,248,5.8,5.8,32,0.00,,SKC,0.00,VWS V14.00,2013-12-22 18:24:00,
2013-12-22 10:27:00,41.8,14.8,30.18,WSW,248,5.4,5.4,33,0.00,,SKC,0.00,VWS V14.00,2013-12-22 18:27:00,
2013-12-22 10:28:00,41.9,15.6,30.18,WSW,248,4.5,4.5,34,0.00,,SKC,0.00,VWS V14.00,2013-12-22 18:28:00,
2013-12-22 10:29:00,41.9,15.6,30.18,SW,225,6.0,6.0,34,0.00,,SKC,0.00,VWS V14.00,2013-12-22 18:29:00,
2013-12-22 10:32:00,42.1,15.8,30.18,SW,225,4.5,4.5,34,0.00,,SKC,0.00,VWS V14.00,2013-12-22 18:32:00,
2013-12-22 10:33:00,42.5,15.4,30.18,SW,225,4.3,4.3,33,0.00,,SKC,0.00,VWS V14.00,2013-12-22 18:33:00,
2013-12-22 10:34:00,42.3,15.3,30.18,WSW,248,5.4,5.4,33,0.00,,SKC,0.00,VWS V14.00,2013-12-22 18:34:00,
2013-12-22 10:35:00,42.3,15.9,30.18,SW,225,5.8,5.8,34,0.00,,SKC,0.00,VWS V14.00,2013-12-22 18:35:00,
2013-12-22 10:37:00,42.8,15.7,30.18,SW,225,4.9,4.9,33,0.00,,SKC,0.00,VWS V14.00,2013-12-22 18:37:00,
2013-12-22 10:38:00,42.8,15.7,30.18,SW,225,3.4,3.4,33,0.00,,SKC,0.00,VWS V14.00,2013-12-22 18:38:00,
2013-12-22 10:39:00,43.0,16.6,30.18,SW,225,3.8,3.8,34,0.00,,SKC,0.00,VWS V14.00,2013-12-22 18:39:00,
2013-12-22 10:40:00,43.2,16.1,30.18,SSW,202,4.3,4.3,33,0.00,,SKC,0.00,VWS V14.00,2013-12-22 18:40:00,
2013-12-22 10:42:00,43.2,16.7,30.18,SSW,202,3.8,3.8,34,0.00,,SKC,0.00,VWS V14.00,2013-12-22 18:42:00,
2013-12-22 10:43:00,43.4,16.9,30.18,SE,135,5.6,5.6,34,0.00,,SKC,0.00,VWS V14.00,2013-12-22 18:43:00,
2013-12-22 10:44:00,43.4,16.9,30.18,South,180,2.7,2.7,34,0.00,,SKC,0.00,VWS V14.00,2013-12-22 18:44:00,
2013-12-22 10:45:00,43.4,16.9,30.18,South,180,4.7,4.7,34,0.00,,SKC,0.00,VWS V14.00,2013-12-22 18:45:00,
2013-12-22 10:47:00,43.4,16.2,30.18,South,180,3.1,3.1,33,0.00,,SKC,0.00,VWS V14.00,2013-12-22 18:47:00,
2013-12-22 10:48:00,43.6,17.1,30.18,SSW,202,3.6,3.6,34,0.00,,SKC,0.00,VWS V14.00,2013-12-22 18:48:00,
2013-12-22 10:49:00,43.6,17.1,30.18,SSW,202,3.8,3.8,34,0.00,,SKC,0.00,VWS V14.00,2013-12-22 18:49:00,
2013-12-22 10:50:00,43.6,16.4,30.18,SW,225,3.6,3.6,33,0.00,,SKC,0.00,VWS V14.00,2013-12-22 18:50:00,
2013-12-22 10:51:00,43.6,16.4,30.18,SSW,202,3.4,3.4,33,0.00,,SKC,0.00,VWS V14.00,2013-12-22 18:51:00,
2013-12-22 10:52:00,43.7,16.5,30.18,SW,225,0.0,0.0,33,0.00,,SKC,0.00,VWS V14.00,2013-12-22 18:52:00,
2013-12-22 10:53:00,43.9,16.7,30.18,SSW,202,2.0,2.0,33,0.00,,SKC,0.00,VWS V14.00,2013-12-22 18:53:00,
2013-12-22 10:55:00,44.1,16.1,30.18,SW,225,0.0,0.0,32,0.00,,SKC,0.00,VWS V14.00,2013-12-22 18:55:00,
2013-12-22 10:56:00,44.5,17.2,30.18,SW,225,1.3,1.3,33,0.00,,SKC,0.00,VWS V14.00,2013-12-22 18:56:00,
2013-12-22 10:57:00,44.6,17.3,30.18,SW,225,2.0,2.0,33,0.00,,SKC,0.00,VWS V14.00,2013-12-22 18:57:00,
2013-12-22 10:58:00,44.8,17.5,30.18,SW,225,3.1,3.1,33,0.00,,SKC,0.00,VWS V14.00,2013-12-22 18:58:00,
2013-12-22 11:00:00,44.8,16.8,30.18,South,180,1.3,1.3,32,0.00,,SKC,0.00,VWS V14.00,2013-12-22 19:00:00,
2013-12-22 11:01:00,44.6,16.6,30.18,South,180,1.3,1.3,32,0.00,,SKC,0.00,VWS V14.00,2013-12-22 19:01:00,
2013-12-22 11:02:00,45.2,16.4,30.18,SW,225,2.7,2.7,31,0.00,,SKC,0.00,VWS V14.00,2013-12-22 19:02:00,
2013-12-22 11:03:00,45.4,16.5,30.18,SW,225,2.9,2.9,31,0.00,,SKC,0.00,VWS V14.00,2013-12-22 19:03:00,
2013-12-22 11:05:00,46.1,17.1,30.18,WSW,248,2.5,2.5,31,0.00,,SKC,0.00,VWS V14.00,2013-12-22 19:05:00,
2013-12-22 11:06:00,46.4,18.2,30.18,SW,225,1.6,1.6,32,0.00,,SKC,0.00,VWS V14.00,2013-12-22 19:06:00,
2013-12-22 11:07:00,46.4,18.2,30.18,SW,225,3.4,3.4,32,0.00,,SKC,0.00,VWS V14.00,2013-12-22 19:07:00,
2013-12-22 11:08:00,46.3,16.5,30.18,WSW,248,3.8,3.8,30,0.00,,SKC,0.00,VWS V14.00,2013-12-22 19:08:00,
2013-12-22 11:10:00,46.4,16.7,30.18,WSW,248,2.9,2.9,30,0.00,,SKC,0.00,VWS V14.00,2013-12-22 19:10:00,
2013-12-22 11:11:00,46.6,16.9,30.18,SW,225,2.2,2.2,30,0.00,,SKC,0.00,VWS V14.00,2013-12-22 19:11:00,
2013-12-22 11:12:00,46.4,16.7,30.18,SW,225,1.1,1.1,30,0.00,,SKC,0.00,VWS V14.00,2013-12-22 19:12:00,
2013-12-22 11:13:00,46.4,16.7,30.18,SW,225,0.9,0.9,30,0.00,,SKC,0.00,VWS V14.00,2013-12-22 19:13:00,
2013-12-22 11:15:00,45.4,15.8,30.18,SW,225,4.7,4.7,30,0.00,,SKC,0.00,VWS V14.00,2013-12-22 19:15:00,
2013-12-22 11:17:00,45.2,14.8,30.18,SW,225,3.4,3.4,29,0.00,,SKC,0.00,VWS V14.00,2013-12-22 19:17:00,
2013-12-22 11:18:00,44.6,14.4,30.18,SW,225,3.1,3.1,29,0.00,,SKC,0.00,VWS V14.00,2013-12-22 19:18:00,
2013-12-22 11:21:00,43.7,14.4,30.18,SSW,202,2.7,2.7,30,0.00,,SKC,0.00,VWS V14.00,2013-12-22 19:21:00,
2013-12-22 11:22:00,43.4,14.8,30.18,South,180,2.9,2.9,31,0.00,,SKC,0.00,VWS V14.00,2013-12-22 19:22:00,
2013-12-22 11:23:00,43.4,14.8,30.18,South,180,1.6,1.6,31,0.00,,SKC,0.00,VWS V14.00,2013-12-22 19:23:00,
2013-12-22 11:24:00,43.4,14.8,30.18,South,180,3.1,3.1,31,0.00,,SKC,0.00,VWS V14.00,2013-12-22 19:24:00,
2013-12-22 11:26:00,43.0,14.5,30.18,South,180,3.1,3.1,31,0.00,,SKC,0.00,VWS V14.00,2013-12-22 19:26:00,
2013-12-22 11:27:00,43.0,15.2,30.18,SE,135,2.7,2.7,32,0.00,,SKC,0.00,VWS V14.00,2013-12-22 19:27:00,
2013-12-22 11:28:00,43.0,15.2,30.18,SE,135,2.9,2.9,32,0.00,,SKC,0.00,VWS V14.00,2013-12-22 19:28:00,
2013-12-22 11:29:00,43.6,15.7,30.18,SE,135,2.7,2.7,32,0.00,,SKC,0.00,VWS V14.00,2013-12-22 19:29:00,
2013-12-22 11:31:00,43.7,15.8,30.18,SE,135,1.3,1.3,32,0.00,,SKC,0.00,VWS V14.00,2013-12-22 19:31:00,
2013-12-22 11:32:00,43.7,16.5,30.18,SE,135,0.9,0.9,33,0.00,,SKC,0.00,VWS V14.00,2013-12-22 19:32:00,
2013-12-22 11:33:00,43.7,16.5,30.18,SE,135,1.1,1.1,33,0.00,,SKC,0.00,VWS V14.00,2013-12-22 19:33:00,
2013-12-22 11:34:00,44.3,17.0,30.18,SE,135,2.0,2.0,33,0.00,,SKC,0.00,VWS V14.00,2013-12-22 19:34:00,
2013-12-22 11:36:00,45.9,17.7,30.18,SSE,158,0.0,0.0,32,0.00,,SKC,0.00,VWS V14.00,2013-12-22 19:36:00,
2013-12-22 11:37:00,46.4,18.2,30.18,SSE,158,0.0,0.0,32,0.00,,SKC,0.00,VWS V14.00,2013-12-22 19:37:00,
2013-12-22 11:38:00,47.0,18.7,30.18,SSE,158,0.0,0.0,32,0.00,,SKC,0.00,VWS V14.00,2013-12-22 19:38:00,
2013-12-22 11:39:00,47.2,18.8,30.18,SSE,158,0.0,0.0,32,0.00,,SKC,0.00,VWS V14.00,2013-12-22 19:39:00,
2013-12-22 11:41:00,48.2,19.8,30.18,SSW,202,0.0,0.0,32,0.00,,SKC,0.00,VWS V14.00,2013-12-22 19:41:00,
2013-12-22 11:42:00,48.2,19.8,30.18,SSW,202,0.0,0.0,32,0.00,,SKC,0.00,VWS V14.00,2013-12-22 19:42:00,
2013-12-22 11:43:00,48.4,18.4,30.18,SSW,202,0.0,0.0,30,0.00,,SKC,0.00,VWS V14.00,2013-12-22 19:43:00,
2013-12-22 11:44:00,48.6,18.6,30.18,SE,135,2.5,2.5,30,0.00,,SKC,0.00,VWS V14.00,2013-12-22 19:44:00,
2013-12-22 11:46:00,48.6,17.0,30.18,East,90,0.0,0.0,28,0.00,,SKC,0.00,VWS V14.00,2013-12-22 19:46:00,
2013-12-22 11:47:00,48.8,17.1,30.18,East,90,0.0,0.0,28,0.00,,SKC,0.00,VWS V14.00,2013-12-22 19:47:00,
2013-12-22 11:48:00,48.8,17.1,30.18,East,90,0.0,0.0,28,0.00,,SKC,0.00,VWS V14.00,2013-12-22 19:48:00,
2013-12-22 11:49:00,49.1,17.5,30.18,East,90,0.0,0.0,28,0.00,,SKC,0.00,VWS V14.00,2013-12-22 19:49:00,
2013-12-22 11:51:00,50.0,18.2,30.18,SE,135,0.0,0.0,28,0.00,,SKC,0.00,VWS V14.00,2013-12-22 19:51:00,
2013-12-22 11:52:00,50.2,18.4,30.18,SE,135,0.0,0.0,28,0.00,,SKC,0.00,VWS V14.00,2013-12-22 19:52:00,
2013-12-22 11:53:00,50.0,18.2,30.18,SE,135,0.0,0.0,28,0.00,,SKC,0.00,VWS V14.00,2013-12-22 19:53:00,
2013-12-22 11:54:00,49.9,18.1,30.18,SE,135,0.0,0.0,28,0.00,,SKC,0.00,VWS V14.00,2013-12-22 19:54:00,
2013-12-22 11:57:00,49.7,17.1,30.18,ENE,68,0.0,0.0,27,0.00,,SKC,0.00,VWS V14.00,2013-12-22 19:57:00,
2013-12-22 11:58:00,49.5,16.9,30.18,NE,45,0.0,0.0,27,0.00,,SKC,0.00,VWS V14.00,2013-12-22 19:58:00,
2013-12-22 11:59:00,50.2,17.5,30.15,ENE,68,0.0,0.0,27,0.00,,SKC,0.00,VWS V14.00,2013-12-22 19:59:00,
2013-12-22 12:02:00,50.2,17.5,30.15,SE,135,0.0,0.0,27,0.00,,SKC,0.00,VWS V14.00,2013-12-22 20:02:00,
2013-12-22 12:03:00,49.9,17.2,30.15,SE,135,0.0,0.0,27,0.00,,SKC,0.00,VWS V14.00,2013-12-22 20:03:00,
2013-12-22 12:04:00,49.9,17.2,30.15,SE,135,3.4,3.4,27,0.00,,SKC,0.00,VWS V14.00,2013-12-22 20:04:00,
2013-12-22 12:05:00,49.9,17.2,30.15,SE,135,1.6,1.6,27,0.00,,SKC,0.00,VWS V14.00,2013-12-22 20:05:00,
2013-12-22 12:07:00,50.4,16.8,30.15,SE,135,0.0,0.0,26,0.00,,SKC,0.00,VWS V14.00,2013-12-22 20:07:00,
2013-12-22 12:08:00,50.4,16.8,30.15,SE,135,0.0,0.0,26,0.00,,SKC,0.00,VWS V14.00,2013-12-22 20:08:00,
2013-12-22 12:09:00,50.6,17.0,30.15,SE,135,0.0,0.0,26,0.00,,SKC,0.00,VWS V14.00,2013-12-22 20:09:00,
2013-12-22 12:10:00,51.3,17.6,30.15,SE,135,0.0,0.0,26,0.00,,SKC,0.00,VWS V14.00,2013-12-22 20:10:00,
2013-12-22 12:12:00,51.1,17.4,30.15,SE,135,2.5,2.5,26,0.00,,SKC,0.00,VWS V14.00,2013-12-22 20:12:00,
2013-12-22 12:13:00,50.9,17.3,30.15,SE,135,2.5,2.5,26,0.00,,SKC,0.00,VWS V14.00,2013-12-22 20:13:00,
2013-12-22 12:14:00,50.9,17.3,30.18,SE,135,0.0,0.0,26,0.00,,SKC,0.00,VWS V14.00,2013-12-22 20:14:00,
2013-12-22 12:15:00,51.1,17.4,30.18,SE,135,2.5,2.5,26,0.00,,SKC,0.00,VWS V14.00,2013-12-22 20:15:00,
2013-12-22 12:17:00,51.1,17.4,30.18,SE,135,1.6,1.6,26,0.00,,SKC,0.00,VWS V14.00,2013-12-22 20:17:00,
2013-12-22 12:18:00,50.9,17.3,30.18,ESE,112,1.1,1.1,26,0.00,,SKC,0.00,VWS V14.00,2013-12-22 20:18:00,
2013-12-22 12:19:00,50.9,17.3,30.18,ESE,112,2.5,2.5,26,0.00,,SKC,0.00,VWS V14.00,2013-12-22 20:19:00,
2013-12-22 12:20:00,50.9,17.3,30.18,SE,135,0.0,0.0,26,0.00,,SKC,0.00,VWS V14.00,2013-12-22 20:20:00,
2013-12-22 12:22:00,51.5,17.8,30.18,East,90,0.0,0.0,26,0.00,,SKC,0.00,VWS V14.00,2013-12-22 20:22:00,
2013-12-22 12:23:00,51.7,17.9,30.18,East,90,0.0,0.0,26,0.00,,SKC,0.00,VWS V14.00,2013-12-22 20:23:00,
2013-12-22 12:24:00,52.0,18.2,30.18,East,90,0.0,0.0,26,0.00,,SKC,0.00,VWS V14.00,2013-12-22 20:24:00,
2013-12-22 12:25:00,52.6,18.7,30.18,East,90,0.0,0.0,26,0.00,,SKC,0.00,VWS V14.00,2013-12-22 20:25:00,
2013-12-22 12:27:00,52.2,17.5,30.18,SSE,158,0.0,0.0,25,0.00,,SKC,0.00,VWS V14.00,2013-12-22 20:27:00,
2013-12-22 12:28:00,52.2,17.5,30.18,SSE,158,0.0,0.0,25,0.00,,SKC,0.00,VWS V14.00,2013-12-22 20:28:00,
2013-12-22 12:29:00,52.4,17.6,30.18,SSE,158,0.0,0.0,25,0.00,,SKC,0.00,VWS V14.00,2013-12-22 20:29:00,
2013-12-22 12:30:00,52.4,17.6,30.18,South,180,0.0,0.0,25,0.00,,SKC,0.00,VWS V14.00,2013-12-22 20:30:00,
2013-12-22 12:33:00,54.2,19.1,30.18,South,180,0.0,0.0,25,0.00,,SKC,0.00,VWS V14.00,2013-12-22 20:33:00,
2013-12-22 12:34:00,54.2,19.1,30.18,South,180,0.0,0.0,25,0.00,,SKC,0.00,VWS V14.00,2013-12-22 20:34:00,
2013-12-22 12:35:00,54.5,19.5,30.18,South,180,0.0,0.0,25,0.00,,SKC,0.00,VWS V14.00,2013-12-22 20:35:00,
2013-12-22 12:39:00,54.5,18.5,30.18,SW,225,0.0,0.0,24,0.00,,SKC,0.00,VWS V14.00,2013-12-22 20:39:00,
2013-12-22 12:40:00,54.2,18.2,30.18,SW,225,0.0,0.0,24,0.00,,SKC,0.00,VWS V14.00,2013-12-22 20:40:00,
2013-12-22 12:44:00,54.0,18.0,30.18,East,90,0.0,0.0,24,0.00,,SKC,0.00,VWS V14.00,2013-12-22 20:44:00,
2013-12-22 12:45:00,53.8,17.9,30.18,East,90,0.0,0.0,24,0.00,,SKC,0.00,VWS V14.00,2013-12-22 20:45:00,
2013-12-22 12:49:00,54.0,18.0,30.18,East,90,0.0,0.0,24,0.00,,SKC,0.00,VWS V14.00,2013-12-22 20:49:00,
2013-12-22 12:50:00,54.0,18.0,30.18,East,90,0.0,0.0,24,0.00,,SKC,0.00,VWS V14.00,2013-12-22 20:50:00,
2013-12-22 12:51:00,53.8,17.9,30.18,East,90,0.0,0.0,24,0.00,,SKC,0.00,VWS V14.00,2013-12-22 20:51:00,
2013-12-22 12:52:00,53.8,17.9,30.18,ESE,112,0.0,0.0,24,0.00,,SKC,0.00,VWS V14.00,2013-12-22 20:52:00,
2013-12-22 12:54:00,53.6,17.7,30.18,East,90,0.0,0.0,24,0.00,,SKC,0.00,VWS V14.00,2013-12-22 20:54:00,
2013-12-22 12:55:00,53.5,17.6,30.18,East,90,0.0,0.0,24,0.00,,SKC,0.00,VWS V14.00,2013-12-22 20:55:00,
2013-12-22 12:56:00,53.8,17.9,30.18,NE,45,0.0,0.0,24,0.00,,SKC,0.00,VWS V14.00,2013-12-22 20:56:00,
2013-12-22 12:57:00,54.4,18.4,30.18,NE,45,2.0,2.0,24,0.00,,SKC,0.00,VWS V14.00,2013-12-22 20:57:00,
2013-12-22 12:59:00,55.1,19.0,30.18,ENE,68,2.2,2.2,24,0.00,,SKC,0.00,VWS V14.00,2013-12-22 20:59:00,
2013-12-22 13:00:00,55.1,19.0,30.18,ESE,112,0.0,0.0,24,0.00,,SKC,0.00,VWS V14.00,2013-12-22 21:00:00,
2013-12-22 13:01:00,54.5,16.5,30.18,East,90,3.1,3.1,22,0.00,,SKC,0.00,VWS V14.00,2013-12-22 21:01:00,
2013-12-22 13:02:00,54.2,16.2,30.18,East,90,2.5,2.5,22,0.00,,SKC,0.00,VWS V14.00,2013-12-22 21:02:00,
2013-12-22 13:04:00,54.2,16.2,30.18,East,90,0.9,0.9,22,0.00,,SKC,0.00,VWS V14.00,2013-12-22 21:04:00,
2013-12-22 13:05:00,54.4,16.3,30.18,East,90,0.0,0.0,22,0.00,,SKC,0.00,VWS V14.00,2013-12-22 21:05:00,
2013-12-22 13:06:00,54.4,16.3,30.18,SE,135,0.0,0.0,22,0.00,,SKC,0.00,VWS V14.00,2013-12-22 21:06:00,
2013-12-22 13:07:00,54.2,16.2,30.18,ESE,112,0.0,0.0,22,0.00,,SKC,0.00,VWS V14.00,2013-12-22 21:07:00,
2013-12-22 13:09:00,53.6,15.7,30.18,ENE,68,2.5,2.5,22,0.00,,SKC,0.00,VWS V14.00,2013-12-22 21:09:00,
2013-12-22 13:10:00,53.6,15.7,30.18,East,90,3.1,3.1,22,0.00,,SKC,0.00,VWS V14.00,2013-12-22 21:10:00,
2013-12-22 13:11:00,53.5,15.6,30.18,East,90,2.0,2.0,22,0.00,,SKC,0.00,VWS V14.00,2013-12-22 21:11:00,
2013-12-22 13:12:00,53.5,15.6,30.18,NE,45,1.1,1.1,22,0.00,,SKC,0.00,VWS V14.00,2013-12-22 21:12:00,
2013-12-22 13:15:00,54.2,16.2,30.21,ENE,68,2.5,2.5,22,0.00,,SKC,0.00,VWS V14.00,2013-12-22 21:15:00,
2013-12-22 13:16:00,54.4,16.3,30.21,East,90,2.2,2.2,22,0.00,,SKC,0.00,VWS V14.00,2013-12-22 21:16:00,
2013-12-22 13:17:00,53.8,15.9,30.21,ESE,112,2.0,2.0,22,0.00,,SKC,0.00,VWS V14.00,2013-12-22 21:17:00,
2013-12-22 13:18:00,53.6,15.7,30.21,East,90,1.6,1.6,22,0.00,,SKC,0.00,VWS V14.00,2013-12-22 21:18:00,
2013-12-22 13:20:00,53.3,15.4,30.21,ESE,112,0.0,0.0,22,0.00,,SKC,0.00,VWS V14.00,2013-12-22 21:20:00,
2013-12-22 13:21:00,53.3,15.4,30.21,ESE,112,0.0,0.0,22,0.00,,SKC,0.00,VWS V14.00,2013-12-22 21:21:00,
2013-12-22 13:22:00,53.8,15.9,30.21,SSE,158,0.0,0.0,22,0.00,,SKC,0.00,VWS V14.00,2013-12-22 21:22:00,
2013-12-22 13:23:00,53.8,15.9,30.21,South,180,1.6,1.6,22,0.00,,SKC,0.00,VWS V14.00,2013-12-22 21:23:00,
2013-12-22 13:26:00,54.0,16.0,30.21,ESE,112,0.0,0.0,22,0.00,,SKC,0.00,VWS V14.00,2013-12-22 21:26:00,
2013-12-22 13:27:00,54.2,16.2,30.21,SE,135,0.0,0.0,22,0.00,,SKC,0.00,VWS V14.00,2013-12-22 21:27:00,
2013-12-22 13:28:00,54.0,16.0,30.21,SE,135,2.7,2.7,22,0.00,,SKC,0.00,VWS V14.00,2013-12-22 21:28:00,
2013-12-22 13:31:00,53.8,15.9,30.18,SSE,158,1.3,1.3,22,0.00,,SKC,0.00,VWS V14.00,2013-12-22 21:31:00,
2013-12-22 13:32:00,53.6,15.7,30.18,SE,135,2.5,2.5,22,0.00,,SKC,0.00,VWS V14.00,2013-12-22 21:32:00,
2013-12-22 13:33:00,53.6,15.7,30.18,SE,135,0.0,0.0,22,0.00,,SKC,0.00,VWS V14.00,2013-12-22 21:33:00,
2013-12-22 13:36:00,53.8,15.9,30.18,East,90,0.0,0.0,22,0.00,,SKC,0.00,VWS V14.00,2013-12-22 21:36:00,
2013-12-22 13:37:00,54.0,16.0,30.18,East,90,0.0,0.0,22,0.00,,SKC,0.00,VWS V14.00,2013-12-22 21:37:00,
2013-12-22 13:38:00,54.0,16.0,30.18,ESE,112,0.0,0.0,22,0.00,,SKC,0.00,VWS V14.00,2013-12-22 21:38:00,
2013-12-22 13:39:00,54.0,16.0,30.18,ESE,112,0.0,0.0,22,0.00,,SKC,0.00,VWS V14.00,2013-12-22 21:39:00,
2013-12-22 13:41:00,53.6,15.7,30.18,ESE,112,3.4,3.4,22,0.00,,SKC,0.00,VWS V14.00,2013-12-22 21:41:00,
2013-12-22 13:42:00,53.6,15.7,30.18,ESE,112,2.7,2.7,22,0.00,,SKC,0.00,VWS V14.00,2013-12-22 21:42:00,
2013-12-22 13:43:00,53.6,15.7,30.18,East,90,2.9,2.9,22,0.00,,SKC,0.00,VWS V14.00,2013-12-22 21:43:00,
2013-12-22 13:44:00,53.1,15.3,30.18,ESE,112,3.6,3.6,22,0.00,,SKC,0.00,VWS V14.00,2013-12-22 21:44:00,
2013-12-22 13:46:00,52.9,15.1,30.18,East,90,2.9,2.9,22,0.00,,SKC,0.00,VWS V14.00,2013-12-22 21:46:00,
2013-12-22 13:47:00,52.9,15.1,30.18,ENE,68,3.6,3.6,22,0.00,,SKC,0.00,VWS V14.00,2013-12-22 21:47:00,
2013-12-22 13:48:00,53.3,15.4,30.18,East,90,2.7,2.7,22,0.00,,SKC,0.00,VWS V14.00,2013-12-22 21:48:00,
2013-12-22 13:50:00,53.8,15.9,30.18,East,90,2.7,2.7,22,0.00,,SKC,0.00,VWS V14.00,2013-12-22 21:50:00,
2013-12-22 13:51:00,53.8,15.9,30.18,East,90,0.0,0.0,22,0.00,,SKC,0.00,VWS V14.00,2013-12-22 21:51:00,
2013-12-22 13:53:00,54.2,16.2,30.18,ENE,68,3.4,3.4,22,0.00,,SKC,0.00,VWS V14.00,2013-12-22 21:53:00,
2013-12-22 13:54:00,54.0,16.0,30.18,East,90,2.0,2.0,22,0.00,,SKC,0.00,VWS V14.00,2013-12-22 21:54:00,
2013-12-22 13:55:00,54.2,16.2,30.18,NE,45,2.0,2.0,22,0.00,,SKC,0.00,VWS V14.00,2013-12-22 21:55:00,
2013-12-22 13:56:00,54.4,16.3,30.18,NNE,22,2.9,2.9,22,0.00,,SKC,0.00,VWS V14.00,2013-12-22 21:56:00,
2013-12-22 13:58:00,54.4,16.3,30.18,ENE,68,2.2,2.2,22,0.00,,SKC,0.00,VWS V14.00,2013-12-22 21:58:00,
2013-12-22 13:59:00,54.4,16.3,30.18,East,90,2.0,2.0,22,0.00,,SKC,0.00,VWS V14.00,2013-12-22 21:59:00,
2013-12-22 14:00:00,54.2,16.2,30.18,East,90,4.0,4.0,22,0.00,,SKC,0.00,VWS V14.00,2013-12-22 22:00:00,
2013-12-22 14:01:00,53.8,15.9,30.18,East,90,0.0,0.0,22,0.00,,SKC,0.00,VWS V14.00,2013-12-22 22:01:00,
2013-12-22 14:03:00,53.8,15.9,30.18,East,90,3.6,3.6,22,0.00,,SKC,0.00,VWS V14.00,2013-12-22 22:03:00,
2013-12-22 14:04:00,53.8,15.9,30.18,East,90,2.5,2.5,22,0.00,,SKC,0.00,VWS V14.00,2013-12-22 22:04:00,
2013-12-22 14:06:00,53.6,15.7,30.18,East,90,3.4,3.4,22,0.00,,SKC,0.00,VWS V14.00,2013-12-22 22:06:00,
2013-12-22 14:07:00,53.6,15.7,30.18,ENE,68,2.7,2.7,22,0.00,,SKC,0.00,VWS V14.00,2013-12-22 22:07:00,
2013-12-22 14:08:00,54.0,16.0,30.18,East,90,0.0,0.0,22,0.00,,SKC,0.00,VWS V14.00,2013-12-22 22:08:00,
2013-12-22 14:09:00,54.0,16.0,30.18,East,90,0.0,0.0,22,0.00,,SKC,0.00,VWS V14.00,2013-12-22 22:09:00,
2013-12-22 14:10:00,54.2,16.2,30.18,NE,45,2.5,2.5,22,0.00,,SKC,0.00,VWS V14.00,2013-12-22 22:10:00,
2013-12-22 14:11:00,54.2,16.2,30.18,ENE,68,0.0,0.0,22,0.00,,SKC,0.00,VWS V14.00,2013-12-22 22:11:00,
2013-12-22 14:12:00,54.4,16.3,30.18,NE,45,3.6,3.6,22,0.00,,SKC,0.00,VWS V14.00,2013-12-22 22:12:00,
2013-12-22 14:14:00,54.0,16.0,30.18,East,90,2.0,2.0,22,0.00,,SKC,0.00,VWS V14.00,2013-12-22 22:14:00,
2013-12-22 14:16:00,54.0,16.0,30.18,NE,45,3.1,3.1,22,0.00,,SKC,0.00,VWS V14.00,2013-12-22 22:16:00,
2013-12-22 14:17:00,54.0,16.0,30.18,East,90,1.6,1.6,22,0.00,,SKC,0.00,VWS V14.00,2013-12-22 22:17:00,
2013-12-22 14:19:00,53.6,15.7,30.18,ENE,68,1.6,1.6,22,0.00,,SKC,0.00,VWS V14.00,2013-12-22 22:19:00,
2013-12-22 14:20:00,53.6,15.7,30.18,East,90,2.2,2.2,22,0.00,,SKC,0.00,VWS V14.00,2013-12-22 22:20:00,
2013-12-22 14:21:00,53.8,15.9,30.18,East,90,0.0,0.0,22,0.00,,SKC,0.00,VWS V14.00,2013-12-22 22:21:00,
2013-12-22 14:22:00,53.8,15.9,30.18,ENE,68,3.1,3.1,22,0.00,,SKC,0.00,VWS V14.00,2013-12-22 22:22:00,
2013-12-22 14:24:00,53.8,15.9,30.18,East,90,4.3,4.3,22,0.00,,SKC,0.00,VWS V14.00,2013-12-22 22:24:00,
2013-12-22 14:25:00,53.1,15.3,30.18,East,90,3.8,3.8,22,0.00,,SKC,0.00,VWS V14.00,2013-12-22 22:25:00,
2013-12-22 14:26:00,52.9,15.1,30.18,East,90,2.9,2.9,22,0.00,,SKC,0.00,VWS V14.00,2013-12-22 22:26:00,
2013-12-22 14:27:00,52.9,15.1,30.18,East,90,2.5,2.5,22,0.00,,SKC,0.00,VWS V14.00,2013-12-22 22:27:00,
2013-12-22 14:29:00,52.6,14.8,30.15,ESE,112,2.2,2.2,22,0.00,,SKC,0.00,VWS V14.00,2013-12-22 22:29:00,
2013-12-22 14:30:00,52.6,14.8,30.15,ESE,112,1.3,1.3,22,0.00,,SKC,0.00,VWS V14.00,2013-12-22 22:30:00,
2013-12-22 14:31:00,52.4,14.7,30.15,East,90,3.1,3.1,22,0.00,,SKC,0.00,VWS V14.00,2013-12-22 22:31:00,
2013-12-22 14:32:00,52.0,14.4,30.15,East,90,3.8,3.8,22,0.00,,SKC,0.00,VWS V14.00,2013-12-22 22:32:00,
2013-12-22 14:34:00,52.2,14.5,30.15,SE,135,4.0,4.0,22,0.00,,SKC,0.00,VWS V14.00,2013-12-22 22:34:00,
2013-12-22 14:35:00,52.2,14.5,30.15,ESE,112,3.6,3.6,22,0.00,,SKC,0.00,VWS V14.00,2013-12-22 22:35:00,
2013-12-22 14:36:00,51.8,14.2,30.15,ESE,112,2.0,2.0,22,0.00,,SKC,0.00,VWS V14.00,2013-12-22 22:36:00,
2013-12-22 14:37:00,51.8,14.2,30.15,East,90,3.1,3.1,22,0.00,,SKC,0.00,VWS V14.00,2013-12-22 22:37:00,
2013-12-22 14:39:00,52.4,14.7,30.15,East,90,0.0,0.0,22,0.00,,SKC,0.00,VWS V14.00,2013-12-22 22:39:00,
2013-12-22 14:40:00,52.4,16.7,30.15,SE,135,2.5,2.5,24,0.00,,SKC,0.00,VWS V14.00,2013-12-22 22:40:00,
2013-12-22 14:41:00,52.6,14.8,30.15,ESE,112,1.6,1.6,22,0.00,,SKC,0.00,VWS V14.00,2013-12-22 22:41:00,
2013-12-22 14:42:00,52.4,14.7,30.15,ESE,112,2.7,2.7,22,0.00,,SKC,0.00,VWS V14.00,2013-12-22 22:42:00,
2013-12-22 14:43:00,52.2,14.5,30.15,ESE,112,0.0,0.0,22,0.00,,SKC,0.00,VWS V14.00,2013-12-22 22:43:00,
2013-12-22 14:45:00,52.2,14.5,30.15,ESE,112,1.6,1.6,22,0.00,,SKC,0.00,VWS V14.00,2013-12-22 22:45:00,
2013-12-22 14:46:00,52.2,14.5,30.15,East,90,2.9,2.9,22,0.00,,SKC,0.00,VWS V14.00,2013-12-22 22:46:00,
2013-12-22 14:47:00,52.6,14.8,30.15,East,90,1.6,1.6,22,0.00,,SKC,0.00,VWS V14.00,2013-12-22 22:47:00,
2013-12-22 14:48:00,52.9,15.1,30.15,East,90,2.5,2.5,22,0.00,,SKC,0.00,VWS V14.00,2013-12-22 22:48:00,
2013-12-22 14:51:00,52.6,14.8,30.15,ESE,112,1.6,1.6,22,0.00,,SKC,0.00,VWS V14.00,2013-12-22 22:51:00,
2013-12-22 14:52:00,52.7,15.0,30.15,East,90,0.0,0.0,22,0.00,,SKC,0.00,VWS V14.00,2013-12-22 22:52:00,
2013-12-22 14:53:00,52.7,15.0,30.15,East,90,1.1,1.1,22,0.00,,SKC,0.00,VWS V14.00,2013-12-22 22:53:00,
2013-12-22 14:56:00,52.6,14.8,30.15,East,90,0.0,0.0,22,0.00,,SKC,0.00,VWS V14.00,2013-12-22 22:56:00,
2013-12-22 14:57:00,52.6,14.8,30.15,NNE,22,0.0,0.0,22,0.00,,SKC,0.00,VWS V14.00,2013-12-22 22:57:00,
2013-12-22 14:58:00,52.9,15.1,30.15,NE,45,2.5,2.5,22,0.00,,SKC,0.00,VWS V14.00,2013-12-22 22:58:00,
2013-12-22 15:01:00,53.5,15.6,30.18,NE,45,0.0,0.0,22,0.00,,SKC,0.00,VWS V14.00,2013-12-22 23:01:00,
2013-12-22 15:03:00,53.8,15.9,30.18,NE,45,1.6,1.6,22,0.00,,SKC,0.00,VWS V14.00,2013-12-22 23:03:00,
2013-12-22 15:06:00,54.2,16.2,30.18,North,0,0.0,0.0,22,0.00,,SKC,0.00,VWS V14.00,2013-12-22 23:06:00,
2013-12-22 15:08:00,54.4,16.3,30.18,North,0,0.0,0.0,22,0.00,,SKC,0.00,VWS V14.00,2013-12-22 23:08:00,
2013-12-22 15:09:00,54.4,16.3,30.18,North,0,0.0,0.0,22,0.00,,SKC,0.00,VWS V14.00,2013-12-22 23:09:00,
2013-12-22 15:11:00,54.2,16.2,30.18,NNE,22,0.0,0.0,22,0.00,,SKC,0.00,VWS V14.00,2013-12-22 23:11:00,
2013-12-22 15:13:00,54.4,16.3,30.18,NNE,22,0.0,0.0,22,0.00,,SKC,0.00,VWS V14.00,2013-12-22 23:13:00,
2013-12-22 15:14:00,54.5,16.5,30.18,NNE,22,0.0,0.0,22,0.00,,SKC,0.00,VWS V14.00,2013-12-22 23:14:00,
2013-12-22 15:16:00,54.7,16.6,30.18,NNE,22,0.0,0.0,22,0.00,,SKC,0.00,VWS V14.00,2013-12-22 23:16:00,
2013-12-22 15:18:00,54.4,16.3,30.18,West,270,2.2,2.2,22,0.00,,SKC,0.00,VWS V14.00,2013-12-22 23:18:00,
2013-12-22 15:19:00,54.7,16.6,30.18,West,270,0.0,0.0,22,0.00,,SKC,0.00,VWS V14.00,2013-12-22 23:19:00,
2013-12-22 15:21:00,54.7,16.6,30.18,West,270,0.0,0.0,22,0.00,,SKC,0.00,VWS V14.00,2013-12-22 23:21:00,
2013-12-22 15:23:00,54.0,16.0,30.18,West,270,0.0,0.0,22,0.00,,SKC,0.00,VWS V14.00,2013-12-22 23:23:00,
2013-12-22 15:24:00,54.0,16.0,30.18,West,270,0.0,0.0,22,0.00,,SKC,0.00,VWS V14.00,2013-12-22 23:24:00,
2013-12-22 15:25:00,53.6,15.7,30.18,West,270,0.0,0.0,22,0.00,,SKC,0.00,VWS V14.00,2013-12-22 23:25:00,
2013-12-22 15:26:00,53.6,15.7,30.18,ENE,68,0.0,0.0,22,0.00,,SKC,0.00,VWS V14.00,2013-12-22 23:26:00,
2013-12-22 15:27:00,53.8,15.9,30.18,East,90,0.0,0.0,22,0.00,,SKC,0.00,VWS V14.00,2013-12-22 23:27:00,
2013-12-22 15:28:00,53.1,15.3,30.18,SE,135,0.0,0.0,22,0.00,,SKC,0.00,VWS V14.00,2013-12-22 23:28:00,
2013-12-22 15:29:00,53.1,15.3,30.18,SE,135,0.0,0.0,22,0.00,,SKC,0.00,VWS V14.00,2013-12-22 23:29:00,
2013-12-22 15:30:00,52.9,15.1,30.18,SE,135,0.0,0.0,22,0.00,,SKC,0.00,VWS V14.00,2013-12-22 23:30:00,
2013-12-22 15:31:00,52.9,15.1,30.18,SE,135,0.0,0.0,22,0.00,,SKC,0.00,VWS V14.00,2013-12-22 23:31:00,
2013-12-22 15:32:00,52.7,15.0,30.18,SE,135,0.0,0.0,22,0.00,,SKC,0.00,VWS V14.00,2013-12-22 23:32:00,
2013-12-22 15:34:00,52.6,14.8,30.18,SE,135,2.5,2.5,22,0.00,,SKC,0.00,VWS V14.00,2013-12-22 23:34:00,
2013-12-22 15:35:00,52.4,14.7,30.18,SE,135,1.3,1.3,22,0.00,,SKC,0.00,VWS V14.00,2013-12-22 23:35:00,
2013-12-22 15:36:00,52.2,14.5,30.18,SE,135,1.1,1.1,22,0.00,,SKC,0.00,VWS V14.00,2013-12-22 23:36:00,
2013-12-22 15:37:00,52.2,14.5,30.18,SE,135,0.9,0.9,22,0.00,,SKC,0.00,VWS V14.00,2013-12-22 23:37:00,
2013-12-22 15:39:00,52.0,14.4,30.18,SE,135,1.1,1.1,22,0.00,,SKC,0.00,VWS V14.00,2013-12-22 23:39:00,
2013-12-22 15:43:00,52.7,15.0,30.18,SE,135,0.0,0.0,22,0.00,,SKC,0.00,VWS V14.00,2013-12-22 23:43:00,
2013-12-22 15:44:00,52.7,15.0,30.18,SE,135,0.0,0.0,22,0.00,,SKC,0.00,VWS V14.00,2013-12-22 23:44:00,
2013-12-22 15:48:00,52.7,15.0,30.18,SE,135,0.0,0.0,22,0.00,,SKC,0.00,VWS V14.00,2013-12-22 23:48:00,
2013-12-22 15:49:00,52.7,15.0,30.18,SE,135,0.0,0.0,22,0.00,,SKC,0.00,VWS V14.00,2013-12-22 23:49:00,
2013-12-22 15:53:00,52.6,14.8,30.18,NNE,22,0.0,0.0,22,0.00,,SKC,0.00,VWS V14.00,2013-12-22 23:53:00,
2013-12-22 15:54:00,52.6,14.8,30.18,NNE,22,0.0,0.0,22,0.00,,SKC,0.00,VWS V14.00,2013-12-22 23:54:00,
2013-12-22 15:58:00,52.2,14.5,30.18,NNE,22,0.0,0.0,22,0.00,,SKC,0.00,VWS V14.00,2013-12-22 23:58:00,
2013-12-22 15:59:00,52.2,14.5,30.18,NNE,22,0.0,0.0,22,0.00,,SKC,0.00,VWS V14.00,2013-12-22 23:59:00,
2013-12-22 16:00:00,52.2,14.5,30.18,NNE,22,0.0,0.0,22,0.00,,SKC,0.00,VWS V14.00,2013-12-23 00:00:00,
2013-12-22 16:03:00,51.8,14.2,30.18,NNE,22,0.0,0.0,22,0.00,,SKC,0.00,VWS V14.00,2013-12-23 00:03:00,
2013-12-22 16:04:00,51.5,13.9,30.18,NNE,22,0.0,0.0,22,0.00,,SKC,0.00,VWS V14.00,2013-12-23 00:04:00,
2013-12-22 16:05:00,51.3,13.8,30.18,East,90,0.0,0.0,22,0.00,,SKC,0.00,VWS V14.00,2013-12-23 00:05:00,
2013-12-22 16:06:00,51.1,13.6,30.18,East,90,0.0,0.0,22,0.00,,SKC,0.00,VWS V14.00,2013-12-23 00:06:00,
2013-12-22 16:08:00,50.4,13.0,30.18,East,90,0.0,0.0,22,0.00,,SKC,0.00,VWS V14.00,2013-12-23 00:08:00,
2013-12-22 16:09:00,50.2,13.9,30.18,East,90,0.0,0.0,23,0.00,,SKC,0.00,VWS V14.00,2013-12-23 00:09:00,
2013-12-22 16:10:00,50.0,13.7,30.18,East,90,0.0,0.0,23,0.00,,SKC,0.00,VWS V14.00,2013-12-23 00:10:00,
2013-12-22 16:11:00,49.9,13.6,30.18,ESE,112,1.1,1.1,23,0.00,,SKC,0.00,VWS V14.00,2013-12-23 00:11:00,
2013-12-22 16:13:00,49.0,12.8,30.18,South,180,2.5,2.5,23,0.00,,SKC,0.00,VWS V14.00,2013-12-23 00:13:00,
2013-12-22 16:14:00,48.6,12.5,30.18,South,180,1.6,1.6,23,0.00,,SKC,0.00,VWS V14.00,2013-12-23 00:14:00,
2013-12-22 16:15:00,48.1,12.0,30.18,South,180,0.0,0.0,23,0.00,,SKC,0.00,VWS V14.00,2013-12-23 00:15:00,
2013-12-22 16:17:00,47.5,11.6,30.18,South,180,2.5,2.5,23,0.00,,SKC,0.00,VWS V14.00,2013-12-23 00:17:00,
2013-12-22 16:18:00,46.8,11.0,30.18,South,180,1.6,1.6,23,0.00,,SKC,0.00,VWS V14.00,2013-12-23 00:18:00,
2013-12-22 16:19:00,46.3,13.3,30.18,South,180,0.9,0.9,26,0.00,,SKC,0.00,VWS V14.00,2013-12-23 00:19:00,
2013-12-22 16:20:00,46.3,13.3,30.18,South,180,0.9,0.9,26,0.00,,SKC,0.00,VWS V14.00,2013-12-23 00:20:00,
2013-12-22 16:21:00,45.7,12.8,30.18,South,180,1.6,1.6,26,0.00,,SKC,0.00,VWS V14.00,2013-12-23 00:21:00,
2013-12-22 16:22:00,45.2,12.4,30.18,South,180,1.3,1.3,26,0.00,,SKC,0.00,VWS V14.00,2013-12-23 00:22:00,
2013-12-22 16:24:00,43.7,11.1,30.18,South,180,2.0,2.0,26,0.00,,SKC,0.00,VWS V14.00,2013-12-23 00:24:00,
2013-12-22 16:25:00,43.7,11.1,30.18,South,180,2.0,2.0,26,0.00,,SKC,0.00,VWS V14.00,2013-12-23 00:25:00,
2013-12-22 16:26:00,43.0,11.3,30.18,South,180,1.6,1.6,27,0.00,,SKC,0.00,VWS V14.00,2013-12-23 00:26:00,
2013-12-22 16:27:00,42.7,11.0,30.18,South,180,0.0,0.0,27,0.00,,SKC,0.00,VWS V14.00,2013-12-23 00:27:00,
2013-12-22 16:29:00,41.8,10.2,30.21,South,180,0.0,0.0,27,0.00,,SKC,0.00,VWS V14.00,2013-12-23 00:29:00,
2013-12-22 16:30:00,41.8,10.2,30.21,South,180,0.0,0.0,27,0.00,,SKC,0.00,VWS V14.00,2013-12-23 00:30:00,
2013-12-22 16:31:00,41.4,9.9,30.21,South,180,0.0,0.0,27,0.00,,SKC,0.00,VWS V14.00,2013-12-23 00:31:00,
2013-12-22 16:33:00,40.7,10.1,30.21,South,180,0.0,0.0,28,0.00,,SKC,0.00,VWS V14.00,2013-12-23 00:33:00,
2013-12-22 16:34:00,40.1,9.7,30.21,South,180,0.0,0.0,28,0.00,,SKC,0.00,VWS V14.00,2013-12-23 00:34:00,
2013-12-22 16:35:00,40.1,9.7,30.21,South,180,0.0,0.0,28,0.00,,SKC,0.00,VWS V14.00,2013-12-23 00:35:00,
2013-12-22 16:36:00,40.0,9.5,30.21,South,180,0.0,0.0,28,0.00,,SKC,0.00,VWS V14.00,2013-12-23 00:36:00,
2013-12-22 16:38:00,39.2,9.7,30.21,South,180,0.0,0.0,29,0.00,,SKC,0.00,VWS V14.00,2013-12-23 00:38:00,
2013-12-22 16:40:00,38.7,9.2,30.21,South,180,0.0,0.0,29,0.00,,SKC,0.00,VWS V14.00,2013-12-23 00:40:00,
2013-12-22 16:41:00,38.5,9.0,30.21,South,180,0.0,0.0,29,0.00,,SKC,0.00,VWS V14.00,2013-12-23 00:41:00,
2013-12-22 16:43:00,38.2,9.5,30.21,South,180,0.0,0.0,30,0.00,,SKC,0.00,VWS V14.00,2013-12-23 00:43:00,
2013-12-22 16:45:00,38.2,9.5,30.21,South,180,0.0,0.0,30,0.00,,SKC,0.00,VWS V14.00,2013-12-23 00:45:00,
2013-12-22 16:46:00,37.8,9.9,30.21,South,180,0.0,0.0,31,0.00,,SKC,0.00,VWS V14.00,2013-12-23 00:46:00,
2013-12-22 16:48:00,37.4,10.3,30.21,South,180,0.0,0.0,32,0.00,,SKC,0.00,VWS V14.00,2013-12-23 00:48:00,
2013-12-22 16:50:00,37.1,10.7,30.21,South,180,0.0,0.0,33,0.00,,SKC,0.00,VWS V14.00,2013-12-23 00:50:00,
2013-12-22 16:51:00,36.7,11.0,30.21,South,180,0.0,0.0,34,0.00,,SKC,0.00,VWS V14.00,2013-12-23 00:51:00,
2013-12-22 16:54:00,36.0,11.0,30.21,South,180,0.0,0.0,35,0.00,,SKC,0.00,VWS V14.00,2013-12-23 00:54:00,
2013-12-22 16:55:00,36.0,11.0,30.21,South,180,0.0,0.0,35,0.00,,SKC,0.00,VWS V14.00,2013-12-23 00:55:00,
2013-12-22 16:56:00,36.0,11.0,30.21,South,180,0.0,0.0,35,0.00,,SKC,0.00,VWS V14.00,2013-12-23 00:56:00,
2013-12-22 16:59:00,35.5,11.8,30.24,South,180,0.0,0.0,37,0.00,,SKC,0.00,VWS V14.00,2013-12-23 00:59:00,
2013-12-22 17:00:00,35.3,11.0,30.24,South,180,0.0,0.0,36,0.00,,SKC,0.00,VWS V14.00,2013-12-23 01:00:00,
2013-12-22 17:01:00,35.3,11.0,30.24,South,180,0.0,0.0,36,0.00,,SKC,0.00,VWS V14.00,2013-12-23 01:01:00,
2013-12-22 17:04:00,35.5,11.2,30.24,South,180,0.0,0.0,36,0.00,,SKC,0.00,VWS V14.00,2013-12-23 01:04:00,
2013-12-22 17:05:00,35.5,11.2,30.24,South,180,0.0,0.0,36,0.00,,SKC,0.00,VWS V14.00,2013-12-23 01:05:00,
2013-12-22 17:06:00,35.3,11.6,30.24,South,180,1.6,1.6,37,0.00,,SKC,0.00,VWS V14.00,2013-12-23 01:06:00,
2013-12-22 17:07:00,35.1,11.5,30.24,South,180,1.3,1.3,37,0.00,,SKC,0.00,VWS V14.00,2013-12-23 01:07:00,
2013-12-22 17:10:00,34.6,12.2,30.24,South,180,0.0,0.0,39,0.00,,SKC,0.00,VWS V14.00,2013-12-23 01:10:00,
2013-12-22 17:11:00,34.6,12.2,30.24,South,180,0.0,0.0,39,0.00,,SKC,0.00,VWS V14.00,2013-12-23 01:11:00,
2013-12-22 17:12:00,34.4,12.0,30.24,South,180,0.0,0.0,39,0.00,,SKC,0.00,VWS V14.00,2013-12-23 01:12:00,
2013-12-22 17:15:00,34.2,11.8,30.24,South,180,0.0,0.0,39,0.00,,SKC,0.00,VWS V14.00,2013-12-23 01:15:00,
2013-12-22 17:16:00,34.2,11.8,30.24,South,180,0.0,0.0,39,0.00,,SKC,0.00,VWS V14.00,2013-12-23 01:16:00,
2013-12-22 17:17:00,34.2,12.4,30.24,South,180,0.0,0.0,40,0.00,,SKC,0.00,VWS V14.00,2013-12-23 01:17:00,
2013-12-22 17:20:00,33.8,12.6,30.24,South,180,0.0,0.0,41,0.00,,SKC,0.00,VWS V14.00,2013-12-23 01:20:00,
2013-12-22 17:21:00,33.7,12.5,30.24,South,180,0.0,0.0,41,0.00,,SKC,0.00,VWS V14.00,2013-12-23 01:21:00,
2013-12-22 17:22:00,33.5,12.3,30.24,South,180,0.0,0.0,41,0.00,,SKC,0.00,VWS V14.00,2013-12-23 01:22:00,
2013-12-22 17:25:00,32.9,11.8,30.24,South,180,0.0,0.0,41,0.00,,SKC,0.00,VWS V14.00,2013-12-23 01:25:00,
2013-12-22 17:26:00,32.8,11.7,30.24,South,180,0.0,0.0,41,0.00,,SKC,0.00,VWS V14.00,2013-12-23 01:26:00,
2013-12-22 17:27:00,32.8,11.7,30.24,South,180,0.0,0.0,41,0.00,,SKC,0.00,VWS V14.00,2013-12-23 01:27:00,
2013-12-22 17:30:00,32.6,12.1,30.24,South,180,0.0,0.0,42,0.00,,SKC,0.00,VWS V14.00,2013-12-23 01:30:00,
2013-12-22 17:31:00,32.6,12.1,30.24,South,180,0.0,0.0,42,0.00,,SKC,0.00,VWS V14.00,2013-12-23 01:31:00,
2013-12-22 17:32:00,32.6,12.1,30.24,South,180,0.0,0.0,42,0.00,,SKC,0.00,VWS V14.00,2013-12-23 01:32:00,
2013-12-22 17:35:00,32.2,11.7,30.24,South,180,0.0,0.0,42,0.00,,SKC,0.00,VWS V14.00,2013-12-23 01:35:00,
2013-12-22 17:36:00,32.2,11.7,30.24,South,180,0.0,0.0,42,0.00,,SKC,0.00,VWS V14.00,2013-12-23 01:36:00,
2013-12-22 17:37:00,32.2,12.2,30.24,South,180,0.0,0.0,43,0.00,,SKC,0.00,VWS V14.00,2013-12-23 01:37:00,
2013-12-22 17:38:00,32.0,12.1,30.24,South,180,0.0,0.0,43,0.00,,SKC,0.00,VWS V14.00,2013-12-23 01:38:00,
2013-12-22 17:40:00,32.0,12.1,30.24,South,180,0.0,0.0,43,0.00,,SKC,0.00,VWS V14.00,2013-12-23 01:40:00,
2013-12-22 17:41:00,32.0,12.6,30.24,South,180,0.0,0.0,44,0.00,,SKC,0.00,VWS V14.00,2013-12-23 01:41:00,
2013-12-22 17:42:00,31.9,12.4,30.24,South,180,0.0,0.0,44,0.00,,SKC,0.00,VWS V14.00,2013-12-23 01:42:00,
2013-12-22 17:43:00,31.9,11.9,30.24,South,180,0.0,0.0,43,0.00,,SKC,0.00,VWS V14.00,2013-12-23 01:43:00,
2013-12-22 17:45:00,31.7,11.8,30.24,South,180,0.0,0.0,43,0.00,,SKC,0.00,VWS V14.00,2013-12-23 01:45:00,
2013-12-22 17:46:00,31.7,11.8,30.24,South,180,0.0,0.0,43,0.00,,SKC,0.00,VWS V14.00,2013-12-23 01:46:00,
2013-12-22 17:48:00,31.7,11.8,30.24,South,180,0.0,0.0,43,0.00,,SKC,0.00,VWS V14.00,2013-12-23 01:48:00,
2013-12-22 17:49:00,31.9,12.4,30.24,South,180,0.0,0.0,44,0.00,,SKC,0.00,VWS V14.00,2013-12-23 01:49:00,
2013-12-22 17:51:00,31.7,12.8,30.24,South,180,0.0,0.0,45,0.00,,SKC,0.00,VWS V14.00,2013-12-23 01:51:00,
2013-12-22 17:53:00,31.3,12.5,30.24,South,180,0.0,0.0,45,0.00,,SKC,0.00,VWS V14.00,2013-12-23 01:53:00,
2013-12-22 17:54:00,31.1,12.3,30.24,South,180,0.0,0.0,45,0.00,,SKC,0.00,VWS V14.00,2013-12-23 01:54:00,
2013-12-22 17:56:00,31.0,12.1,30.24,South,180,0.0,0.0,45,0.00,,SKC,0.00,VWS V14.00,2013-12-23 01:56:00,
2013-12-22 17:57:00,30.8,12.9,30.24,South,180,0.0,0.0,47,0.00,,SKC,0.00,VWS V14.00,2013-12-23 01:57:00,
2013-12-22 17:58:00,30.8,12.9,30.24,South,180,0.0,0.0,47,0.00,,SKC,0.00,VWS V14.00,2013-12-23 01:58:00,
2013-12-22 17:59:00,30.6,12.8,30.24,South,180,0.0,0.0,47,0.00,,SKC,0.00,VWS V14.00,2013-12-23 01:59:00,
2013-12-22 18:01:00,30.2,12.0,30.24,South,180,0.0,0.0,46,0.00,,SKC,0.00,VWS V14.00,2013-12-23 02:01:00,
2013-12-22 18:02:00,30.2,12.0,30.24,South,180,0.0,0.0,46,0.00,,SKC,0.00,VWS V14.00,2013-12-23 02:02:00,
2013-12-22 18:03:00,30.2,12.4,30.24,South,180,0.0,0.0,47,0.00,,SKC,0.00,VWS V14.00,2013-12-23 02:03:00,
2013-12-22 18:04:00,30.2,12.9,30.24,ENE,68,2.5,2.5,48,0.00,,SKC,0.00,VWS V14.00,2013-12-23 02:04:00,
2013-12-22 18:06:00,30.2,14.7,30.24,ENE,68,0.0,0.0,52,0.00,,SKC,0.00,VWS V14.00,2013-12-23 02:06:00,
2013-12-22 18:07:00,30.1,14.6,30.24,ENE,68,0.0,0.0,52,0.00,,SKC,0.00,VWS V14.00,2013-12-23 02:07:00,
2013-12-22 18:08:00,30.1,14.6,30.24,ENE,68,0.0,0.0,52,0.00,,SKC,0.00,VWS V14.00,2013-12-23 02:08:00,
2013-12-22 18:09:00,30.1,14.6,30.24,ENE,68,0.0,0.0,52,0.00,,SKC,0.00,VWS V14.00,2013-12-23 02:09:00,
2013-12-22 18:11:00,30.1,14.1,30.24,ENE,68,0.0,0.0,51,0.00,,SKC,0.00,VWS V14.00,2013-12-23 02:11:00,
2013-12-22 18:12:00,30.1,14.6,30.24,ENE,68,0.0,0.0,52,0.00,,SKC,0.00,VWS V14.00,2013-12-23 02:12:00,
2013-12-22 18:14:00,30.1,14.1,30.24,East,90,0.0,0.0,51,0.00,,SKC,0.00,VWS V14.00,2013-12-23 02:14:00,
2013-12-22 18:16:00,29.9,14.4,30.24,East,90,0.0,0.0,52,0.00,,SKC,0.00,VWS V14.00,2013-12-23 02:16:00,
2013-12-22 18:17:00,29.9,14.8,30.24,East,90,0.0,0.0,53,0.00,,SKC,0.00,VWS V14.00,2013-12-23 02:17:00,
2013-12-22 18:19:00,29.5,14.9,30.24,East,90,0.0,0.0,54,0.00,,SKC,0.00,VWS V14.00,2013-12-23 02:19:00,
2013-12-22 18:21:00,29.3,13.9,30.24,East,90,0.0,0.0,52,0.00,,SKC,0.00,VWS V14.00,2013-12-23 02:21:00,
2013-12-22 18:22:00,29.3,13.9,30.24,East,90,0.0,0.0,52,0.00,,SKC,0.00,VWS V14.00,2013-12-23 02:22:00,
2013-12-22 18:24:00,29.3,13.5,30.24,East,90,0.0,0.0,51,0.00,,SKC,0.00,VWS V14.00,2013-12-23 02:24:00,
2013-12-22 18:26:00,29.2,13.3,30.24,East,90,0.0,0.0,51,0.00,,SKC,0.00,VWS V14.00,2013-12-23 02:26:00,
2013-12-22 18:27:00,29.2,13.3,30.24,East,90,0.0,0.0,51,0.00,,SKC,0.00,VWS V14.00,2013-12-23 02:27:00,
2013-12-22 18:28:00,29.0,13.1,30.24,SE,135,0.0,0.0,51,0.00,,SKC,0.00,VWS V14.00,2013-12-23 02:28:00,
2013-12-22 18:29:00,29.0,13.1,30.24,SE,135,1.3,1.3,51,0.00,,SKC,0.00,VWS V14.00,2013-12-23 02:29:00,
2013-12-22 18:30:00,29.0,13.1,30.24,SE,135,0.0,0.0,51,0.00,,SKC,0.00,VWS V14.00,2013-12-23 02:30:00,
2013-12-22 18:31:00,28.8,13.0,30.24,SE,135,0.0,0.0,51,0.00,,SKC,0.00,VWS V14.00,2013-12-23 02:31:00,
2013-12-22 18:32:00,28.6,12.8,30.24,SE,135,0.0,0.0,51,0.00,,SKC,0.00,VWS V14.00,2013-12-23 02:32:00,
2013-12-22 18:33:00,28.6,12.8,30.24,SE,135,0.0,0.0,51,0.00,,SKC,0.00,VWS V14.00,2013-12-23 02:33:00,
2013-12-22 18:35:00,28.6,13.2,30.24,SE,135,0.0,0.0,52,0.00,,SKC,0.00,VWS V14.00,2013-12-23 02:35:00,
2013-12-22 18:36:00,28.6,13.7,30.24,SE,135,0.0,0.0,53,0.00,,SKC,0.00,VWS V14.00,2013-12-23 02:36:00,
2013-12-22 18:37:00,28.6,13.7,30.24,SE,135,0.0,0.0,53,0.00,,SKC,0.00,VWS V14.00,2013-12-23 02:37:00,
2013-12-22 18:38:00,28.6,13.7,30.24,SE,135,0.0,0.0,53,0.00,,SKC,0.00,VWS V14.00,2013-12-23 02:38:00,
2013-12-22 18:40:00,28.6,13.7,30.24,SE,135,0.0,0.0,53,0.00,,SKC,0.00,VWS V14.00,2013-12-23 02:40:00,
2013-12-22 18:41:00,28.6,14.1,30.24,SE,135,0.0,0.0,54,0.00,,SKC,0.00,VWS V14.00,2013-12-23 02:41:00,
2013-12-22 18:42:00,28.4,13.5,30.24,SE,135,0.0,0.0,53,0.00,,SKC,0.00,VWS V14.00,2013-12-23 02:42:00,
2013-12-22 18:43:00,28.4,13.5,30.24,SE,135,0.0,0.0,53,0.00,,SKC,0.00,VWS V14.00,2013-12-23 02:43:00,
2013-12-22 18:45:00,28.3,13.3,30.24,SE,135,0.0,0.0,53,0.00,,SKC,0.00,VWS V14.00,2013-12-23 02:45:00,
2013-12-22 18:47:00,28.1,13.2,30.24,SE,135,0.0,0.0,53,0.00,,SKC,0.00,VWS V14.00,2013-12-23 02:47:00,
2013-12-22 18:48:00,28.1,13.2,30.24,SE,135,0.0,0.0,53,0.00,,SKC,0.00,VWS V14.00,2013-12-23 02:48:00,
2013-12-22 18:51:00,27.9,13.0,30.24,SE,135,0.0,0.0,53,0.00,,SKC,0.00,VWS V14.00,2013-12-23 02:51:00,
2013-12-22 18:52:00,27.9,13.0,30.24,SE,135,0.0,0.0,53,0.00,,SKC,0.00,VWS V14.00,2013-12-23 02:52:00,
2013-12-22 18:53:00,27.9,13.0,30.24,SE,135,0.0,0.0,53,0.00,,SKC,0.00,VWS V14.00,2013-12-23 02:53:00,
2013-12-22 18:56:00,27.9,13.4,30.24,SE,135,0.0,0.0,54,0.00,,SKC,0.00,VWS V14.00,2013-12-23 02:56:00,
2013-12-22 18:57:00,28.1,13.6,30.24,SE,135,0.0,0.0,54,0.00,,SKC,0.00,VWS V14.00,2013-12-23 02:57:00,
2013-12-22 18:58:00,28.1,13.6,30.24,SE,135,0.0,0.0,54,0.00,,SKC,0.00,VWS V14.00,2013-12-23 02:58:00,
2013-12-22 19:01:00,28.1,13.6,30.24,SE,135,0.0,0.0,54,0.00,,SKC,0.00,VWS V14.00,2013-12-23 03:01:00,
2013-12-22 19:02:00,28.3,13.8,30.24,SE,135,0.0,0.0,54,0.00,,SKC,0.00,VWS V14.00,2013-12-23 03:02:00,
2013-12-22 19:03:00,28.3,13.8,30.24,SE,135,0.0,0.0,54,0.00,,SKC,0.00,VWS V14.00,2013-12-23 03:03:00,
2013-12-22 19:06:00,28.3,14.2,30.24,SE,135,0.0,0.0,55,0.00,,SKC,0.00,VWS V14.00,2013-12-23 03:06:00,
2013-12-22 19:07:00,28.3,14.6,30.24,SE,135,0.0,0.0,56,0.00,,SKC,0.00,VWS V14.00,2013-12-23 03:07:00,
2013-12-22 19:08:00,28.3,14.2,30.24,NNW,338,0.0,0.0,55,0.00,,SKC,0.00,VWS V14.00,2013-12-23 03:08:00,
2013-12-22 19:09:00,28.1,13.6,30.24,NNW,338,0.0,0.0,54,0.00,,SKC,0.00,VWS V14.00,2013-12-23 03:09:00,
2013-12-22 19:11:00,28.1,13.6,30.24,NW,315,0.0,0.0,54,0.00,,SKC,0.00,VWS V14.00,2013-12-23 03:11:00,
2013-12-22 19:12:00,28.3,13.8,30.24,NW,315,0.0,0.0,54,0.00,,SKC,0.00,VWS V14.00,2013-12-23 03:12:00,
2013-12-22 19:13:00,28.3,14.2,30.24,WNW,292,0.0,0.0,55,0.00,,SKC,0.00,VWS V14.00,2013-12-23 03:13:00,
2013-12-22 19:14:00,28.4,14.8,30.24,WNW,292,0.0,0.0,56,0.00,,SKC,0.00,VWS V14.00,2013-12-23 03:14:00,
2013-12-22 19:16:00,28.4,15.6,30.24,WNW,292,0.0,0.0,58,0.00,,SKC,0.00,VWS V14.00,2013-12-23 03:16:00,
2013-12-22 19:17:00,28.4,15.6,30.24,WNW,292,0.0,0.0,58,0.00,,SKC,0.00,VWS V14.00,2013-12-23 03:17:00,
2013-12-22 19:18:00,28.4,15.6,30.24,WNW,292,0.0,0.0,58,0.00,,SKC,0.00,VWS V14.00,2013-12-23 03:18:00,
2013-12-22 19:20:00,28.3,15.4,30.24,WNW,292,0.0,0.0,58,0.00,,SKC,0.00,VWS V14.00,2013-12-23 03:20:00,
2013-12-22 19:22:00,28.3,15.4,30.24,WNW,292,0.0,0.0,58,0.00,,SKC,0.00,VWS V14.00,2013-12-23 03:22:00,
2013-12-22 19:23:00,28.3,15.4,30.24,WNW,292,0.0,0.0,58,0.00,,SKC,0.00,VWS V14.00,2013-12-23 03:23:00,
2013-12-22 19:24:00,28.3,15.8,30.24,WNW,292,2.7,2.7,59,0.00,,SKC,0.00,VWS V14.00,2013-12-23 03:24:00,
2013-12-22 19:25:00,28.1,16.0,30.24,WNW,292,0.0,0.0,60,0.00,,SKC,0.00,VWS V14.00,2013-12-23 03:25:00,
2013-12-22 19:27:00,28.3,16.9,30.24,NW,315,2.7,2.7,62,0.00,,SKC,0.00,VWS V14.00,2013-12-23 03:27:00,
2013-12-22 19:28:00,28.3,16.9,30.24,NW,315,0.0,0.0,62,0.00,,SKC,0.00,VWS V14.00,2013-12-23 03:28:00,
2013-12-22 19:29:00,28.3,16.9,30.24,NW,315,0.0,0.0,62,0.00,,SKC,0.00,VWS V14.00,2013-12-23 03:29:00,
2013-12-22 19:31:00,28.3,16.9,30.24,NW,315,0.0,0.0,62,0.00,,SKC,0.00,VWS V14.00,2013-12-23 03:31:00,
2013-12-22 19:32:00,28.3,16.9,30.24,NW,315,0.0,0.0,62,0.00,,SKC,0.00,VWS V14.00,2013-12-23 03:32:00,
2013-12-22 19:33:00,28.3,16.9,30.24,NW,315,0.0,0.0,62,0.00,,SKC,0.00,VWS V14.00,2013-12-23 03:33:00,
2013-12-22 19:34:00,28.3,16.9,30.24,NW,315,0.0,0.0,62,0.00,,SKC,0.00,VWS V14.00,2013-12-23 03:34:00,
2013-12-22 19:36:00,28.3,16.5,30.24,NW,315,0.0,0.0,61,0.00,,SKC,0.00,VWS V14.00,2013-12-23 03:36:00,
2013-12-22 19:37:00,28.3,16.9,30.24,NW,315,0.0,0.0,62,0.00,,SKC,0.00,VWS V14.00,2013-12-23 03:37:00,
2013-12-22 19:38:00,28.3,16.9,30.24,NW,315,0.0,0.0,62,0.00,,SKC,0.00,VWS V14.00,2013-12-23 03:38:00,
2013-12-22 19:39:00,28.3,16.9,30.24,NW,315,0.0,0.0,62,0.00,,SKC,0.00,VWS V14.00,2013-12-23 03:39:00,
2013-12-22 19:41:00,28.4,17.5,30.24,NW,315,0.0,0.0,63,0.00,,SKC,0.00,VWS V14.00,2013-12-23 03:41:00,
2013-12-22 19:42:00,28.4,17.1,30.24,NW,315,0.0,0.0,62,0.00,,SKC,0.00,VWS V14.00,2013-12-23 03:42:00,
2013-12-22 19:43:00,28.3,16.9,30.24,NW,315,0.0,0.0,62,0.00,,SKC,0.00,VWS V14.00,2013-12-23 03:43:00,
2013-12-22 19:44:00,28.3,16.9,30.27,NW,315,0.0,0.0,62,0.00,,SKC,0.00,VWS V14.00,2013-12-23 03:44:00,
2013-12-22 19:47:00,28.3,16.9,30.27,NW,315,0.0,0.0,62,0.00,,SKC,0.00,VWS V14.00,2013-12-23 03:47:00,
2013-12-22 19:48:00,28.1,16.8,30.27,NW,315,0.0,0.0,62,0.00,,SKC,0.00,VWS V14.00,2013-12-23 03:48:00,
2013-12-22 19:49:00,28.1,16.8,30.27,NW,315,0.0,0.0,62,0.00,,SKC,0.00,VWS V14.00,2013-12-23 03:49:00,
2013-12-22 19:52:00,27.9,16.6,30.27,NW,315,0.0,0.0,62,0.00,,SKC,0.00,VWS V14.00,2013-12-23 03:52:00,
2013-12-22 19:53:00,27.9,16.6,30.27,NW,315,0.0,0.0,62,0.00,,SKC,0.00,VWS V14.00,2013-12-23 03:53:00,
2013-12-22 19:54:00,27.7,16.4,30.27,NW,315,0.0,0.0,62,0.00,,SKC,0.00,VWS V14.00,2013-12-23 03:54:00,
2013-12-22 19:57:00,27.5,16.2,30.27,NW,315,0.0,0.0,62,0.00,,SKC,0.00,VWS V14.00,2013-12-23 03:57:00,
2013-12-22 19:58:00,27.5,16.2,30.27,NW,315,0.0,0.0,62,0.00,,SKC,0.00,VWS V14.00,2013-12-23 03:58:00,
2013-12-22 19:59:00,27.5,16.2,30.27,NW,315,0.0,0.0,62,0.00,,SKC,0.00,VWS V14.00,2013-12-23 03:59:00,
2013-12-22 20:00:00,27.5,16.2,30.27,NW,315,0.0,0.0,62,0.00,,SKC,0.00,VWS V14.00,2013-12-23 04:00:00,
2013-12-22 20:02:00,27.4,15.7,30.27,NW,315,0.0,0.0,61,0.00,,SKC,0.00,VWS V14.00,2013-12-23 04:02:00,
2013-12-22 20:03:00,27.4,15.7,30.27,NW,315,0.0,0.0,61,0.00,,SKC,0.00,VWS V14.00,2013-12-23 04:03:00,
2013-12-22 20:04:00,27.4,15.7,30.27,NW,315,0.0,0.0,61,0.00,,SKC,0.00,VWS V14.00,2013-12-23 04:04:00,
2013-12-22 20:05:00,27.2,15.5,30.27,NW,315,0.0,0.0,61,0.00,,SKC,0.00,VWS V14.00,2013-12-23 04:05:00,
2013-12-22 20:07:00,27.0,15.4,30.27,West,270,0.0,0.0,61,0.00,,SKC,0.00,VWS V14.00,2013-12-23 04:07:00,
2013-12-22 20:08:00,27.0,15.4,30.27,West,270,0.0,0.0,61,0.00,,SKC,0.00,VWS V14.00,2013-12-23 04:08:00,
2013-12-22 20:09:00,27.0,15.4,30.27,West,270,0.0,0.0,61,0.00,,SKC,0.00,VWS V14.00,2013-12-23 04:09:00,
2013-12-22 20:10:00,26.8,15.2,30.27,West,270,0.0,0.0,61,0.00,,SKC,0.00,VWS V14.00,2013-12-23 04:10:00,
2013-12-22 20:12:00,26.6,15.0,30.27,West,270,0.0,0.0,61,0.00,,SKC,0.00,VWS V14.00,2013-12-23 04:12:00,
2013-12-22 20:13:00,26.6,15.0,30.27,West,270,0.0,0.0,61,0.00,,SKC,0.00,VWS V14.00,2013-12-23 04:13:00,
2013-12-22 20:14:00,26.5,15.2,30.27,West,270,0.0,0.0,62,0.00,,SKC,0.00,VWS V14.00,2013-12-23 04:14:00,
2013-12-22 20:15:00,26.5,15.2,30.27,West,270,0.0,0.0,62,0.00,,SKC,0.00,VWS V14.00,2013-12-23 04:15:00,
2013-12-22 20:18:00,26.5,14.9,30.27,West,270,0.0,0.0,61,0.00,,SKC,0.00,VWS V14.00,2013-12-23 04:18:00,
2013-12-22 20:19:00,26.5,14.9,30.27,West,270,0.0,0.0,61,0.00,,SKC,0.00,VWS V14.00,2013-12-23 04:19:00,
2013-12-22 20:20:00,26.5,14.9,30.27,West,270,0.0,0.0,61,0.00,,SKC,0.00,VWS V14.00,2013-12-23 04:20:00,
2013-12-22 20:23:00,26.5,14.9,30.27,West,270,0.0,0.0,61,0.00,,SKC,0.00,VWS V14.00,2013-12-23 04:23:00,
2013-12-22 20:24:00,26.5,15.2,30.27,West,270,0.0,0.0,62,0.00,,SKC,0.00,VWS V14.00,2013-12-23 04:24:00,
2013-12-22 20:25:00,26.5,15.2,30.27,West,270,0.0,0.0,62,0.00,,SKC,0.00,VWS V14.00,2013-12-23 04:25:00,
2013-12-22 20:28:00,26.1,15.2,30.27,West,270,0.0,0.0,63,0.00,,SKC,0.00,VWS V14.00,2013-12-23 04:28:00,
2013-12-22 20:29:00,26.1,14.9,30.27,West,270,0.0,0.0,62,0.00,,SKC,0.00,VWS V14.00,2013-12-23 04:29:00,
2013-12-22 20:30:00,26.1,14.9,30.27,West,270,0.0,0.0,62,0.00,,SKC,0.00,VWS V14.00,2013-12-23 04:30:00,
2013-12-22 20:33:00,25.9,15.1,30.27,West,270,0.0,0.0,63,0.00,,SKC,0.00,VWS V14.00,2013-12-23 04:33:00,
2013-12-22 20:34:00,26.1,15.2,30.27,West,270,0.0,0.0,63,0.00,,SKC,0.00,VWS V14.00,2013-12-23 04:34:00,
2013-12-22 20:35:00,25.9,15.4,30.27,West,270,0.0,0.0,64,0.00,,SKC,0.00,VWS V14.00,2013-12-23 04:35:00,
2013-12-22 20:38:00,25.9,15.4,30.27,ESE,112,0.0,0.0,64,0.00,,SKC,0.00,VWS V14.00,2013-12-23 04:38:00,
2013-12-22 20:39:00,25.7,15.3,30.27,ESE,112,0.0,0.0,64,0.00,,SKC,0.00,VWS V14.00,2013-12-23 04:39:00,
2013-12-22 20:40:00,25.7,15.3,30.27,ESE,112,0.0,0.0,64,0.00,,SKC,0.00,VWS V14.00,2013-12-23 04:40:00,
2013-12-22 20:43:00,25.4,15.3,30.27,ESE,112,0.0,0.0,65,0.00,,SKC,0.00,VWS V14.00,2013-12-23 04:43:00,
2013-12-22 20:44:00,25.4,15.3,30.27,ESE,112,0.0,0.0,65,0.00,,SKC,0.00,VWS V14.00,2013-12-23 04:44:00,
2013-12-22 20:45:00,25.4,15.6,30.27,ESE,112,0.0,0.0,66,0.00,,SKC,0.00,VWS V14.00,2013-12-23 04:45:00,
2013-12-22 20:49:00,25.2,15.4,30.27,ESE,112,0.0,0.0,66,0.00,,SKC,0.00,VWS V14.00,2013-12-23 04:49:00,
2013-12-22 20:50:00,25.2,15.4,30.27,ESE,112,0.0,0.0,66,0.00,,SKC,0.00,VWS V14.00,2013-12-23 04:50:00,
2013-12-22 20:51:00,25.0,15.3,30.27,ESE,112,0.0,0.0,66,0.00,,SKC,0.00,VWS V14.00,2013-12-23 04:51:00,
2013-12-22 20:54:00,24.8,14.8,30.27,NNW,338,0.0,0.0,65,0.00,,SKC,0.00,VWS V14.00,2013-12-23 04:54:00,
2013-12-22 20:55:00,24.8,14.8,30.27,NW,315,2.5,2.5,65,0.00,,SKC,0.00,VWS V14.00,2013-12-23 04:55:00,
2013-12-22 20:56:00,24.8,14.4,30.27,NW,315,0.0,0.0,64,0.00,,SKC,0.00,VWS V14.00,2013-12-23 04:56:00,
2013-12-22 20:59:00,24.8,14.4,30.27,NW,315,0.0,0.0,64,0.00,,SKC,0.00,VWS V14.00,2013-12-23 04:59:00,
2013-12-22 21:00:00,24.8,14.4,30.27,NW,315,0.0,0.0,64,0.00,,SKC,0.00,VWS V14.00,2013-12-23 05:00:00,
2013-12-22 21:01:00,24.8,14.4,30.27,West,270,0.0,0.0,64,0.00,,SKC,0.00,VWS V14.00,2013-12-23 05:01:00,
2013-12-22 21:06:00,24.8,15.1,30.27,West,270,0.0,0.0,66,0.00,,SKC,0.00,VWS V14.00,2013-12-23 05:06:00,
2013-12-22 21:11:00,24.8,15.4,30.27,West,270,0.0,0.0,67,0.00,,SKC,0.00,VWS V14.00,2013-12-23 05:11:00,
2013-12-22 21:16:00,24.8,15.1,30.27,West,270,0.0,0.0,66,0.00,,SKC,0.00,VWS V14.00,2013-12-23 05:16:00,
2013-12-22 21:17:00,24.8,15.4,30.27,West,270,0.0,0.0,67,0.00,,SKC,0.00,VWS V14.00,2013-12-23 05:17:00,
2013-12-22 21:21:00,24.5,15.1,30.27,West,270,0.0,0.0,67,0.00,,SKC,0.00,VWS V14.00,2013-12-23 05:21:00,
2013-12-22 21:22:00,24.5,15.1,30.27,West,270,0.0,0.0,67,0.00,,SKC,0.00,VWS V14.00,2013-12-23 05:22:00,
2013-12-22 21:26:00,24.5,15.1,30.27,West,270,0.0,0.0,67,0.00,,SKC,0.00,VWS V14.00,2013-12-23 05:26:00,
2013-12-22 21:27:00,24.5,15.1,30.27,West,270,0.0,0.0,67,0.00,,SKC,0.00,VWS V14.00,2013-12-23 05:27:00,
2013-12-22 21:28:00,24.7,15.3,30.27,West,270,0.0,0.0,67,0.00,,SKC,0.00,VWS V14.00,2013-12-23 05:28:00,
2013-12-22 21:31:00,24.8,15.4,30.27,West,270,0.0,0.0,67,0.00,,SKC,0.00,VWS V14.00,2013-12-23 05:31:00,
2013-12-22 21:32:00,24.8,15.4,30.27,West,270,0.0,0.0,67,0.00,,SKC,0.00,VWS V14.00,2013-12-23 05:32:00,
2013-12-22 21:33:00,24.8,15.8,30.27,West,270,0.0,0.0,68,0.00,,SKC,0.00,VWS V14.00,2013-12-23 05:33:00,
2013-12-22 21:36:00,24.8,15.8,30.27,West,270,0.0,0.0,68,0.00,,SKC,0.00,VWS V14.00,2013-12-23 05:36:00,
2013-12-22 21:37:00,24.8,15.8,30.27,West,270,0.0,0.0,68,0.00,,SKC,0.00,VWS V14.00,2013-12-23 05:37:00,
2013-12-22 21:38:00,24.8,15.8,30.27,West,270,0.0,0.0,68,0.00,,SKC,0.00,VWS V14.00,2013-12-23 05:38:00,
2013-12-22 21:41:00,24.5,15.4,30.27,West,270,0.0,0.0,68,0.00,,SKC,0.00,VWS V14.00,2013-12-23 05:41:00,
2013-12-22 21:42:00,24.5,15.4,30.27,West,270,0.0,0.0,68,0.00,,SKC,0.00,VWS V14.00,2013-12-23 05:42:00,
2013-12-22 21:43:00,24.5,15.4,30.27,West,270,0.0,0.0,68,0.00,,SKC,0.00,VWS V14.00,2013-12-23 05:43:00,
2013-12-22 21:44:00,24.5,15.4,30.27,SSW,202,0.0,0.0,68,0.00,,SKC,0.00,VWS V14.00,2013-12-23 05:44:00,
2013-12-22 21:46:00,24.7,15.9,30.27,SSW,202,0.0,0.0,69,0.00,,SKC,0.00,VWS V14.00,2013-12-23 05:46:00,
2013-12-22 21:47:00,24.7,15.9,30.27,SSW,202,0.0,0.0,69,0.00,,SKC,0.00,VWS V14.00,2013-12-23 05:47:00,
2013-12-22 21:48:00,24.5,15.8,30.27,SSW,202,0.0,0.0,69,0.00,,SKC,0.00,VWS V14.00,2013-12-23 05:48:00,
2013-12-22 21:50:00,24.5,15.8,30.27,NE,45,0.0,0.0,69,0.00,,SKC,0.00,VWS V14.00,2013-12-23 05:50:00,
2013-12-22 21:52:00,24.5,15.4,30.27,NE,45,0.0,0.0,68,0.00,,SKC,0.00,VWS V14.00,2013-12-23 05:52:00,
2013-12-22 21:54:00,24.5,15.4,30.27,NNE,22,2.2,2.2,68,0.00,,SKC,0.00,VWS V14.00,2013-12-23 05:54:00,
2013-12-22 21:55:00,24.3,15.3,30.27,NNE,22,0.0,0.0,68,0.00,,SKC,0.00,VWS V14.00,2013-12-23 05:55:00,
2013-12-22 21:57:00,24.3,15.6,30.27,NNE,22,0.0,0.0,69,0.00,,SKC,0.00,VWS V14.00,2013-12-23 05:57:00,
2013-12-22 21:58:00,24.1,15.8,30.27,North,0,0.0,0.0,70,0.00,,SKC,0.00,VWS V14.00,2013-12-23 05:58:00,
2013-12-22 21:59:00,24.1,16.1,30.27,NNE,22,0.0,0.0,71,0.00,,SKC,0.00,VWS V14.00,2013-12-23 05:59:00,
2013-12-22 22:00:00,23.9,15.6,30.27,NE,45,0.0,0.0,70,0.00,,SKC,0.00,VWS V14.00,2013-12-23 06:00:00,
2013-12-22 22:02:00,23.9,15.6,30.27,ENE,68,2.5,2.5,70,0.00,,SKC,0.00,VWS V14.00,2013-12-23 06:02:00,
2013-12-22 22:03:00,23.9,16.2,30.27,ENE,68,2.0,2.0,72,0.00,,SKC,0.00,VWS V14.00,2013-12-23 06:03:00,
2013-12-22 22:05:00,24.1,17.0,30.27,NE,45,0.0,0.0,74,0.00,,SKC,0.00,VWS V14.00,2013-12-23 06:05:00,
2013-12-22 22:07:00,24.1,16.7,30.27,ENE,68,0.0,0.0,73,0.00,,SKC,0.00,VWS V14.00,2013-12-23 06:07:00,
2013-12-22 22:08:00,24.1,16.7,30.27,ENE,68,0.0,0.0,73,0.00,,SKC,0.00,VWS V14.00,2013-12-23 06:08:00,
2013-12-22 22:10:00,24.1,16.7,30.27,NE,45,0.0,0.0,73,0.00,,SKC,0.00,VWS V14.00,2013-12-23 06:10:00,
2013-12-22 22:12:00,24.1,16.4,30.27,NE,45,0.0,0.0,72,0.00,,SKC,0.00,VWS V14.00,2013-12-23 06:12:00,
2013-12-22 22:13:00,24.1,16.4,30.27,NE,45,0.0,0.0,72,0.00,,SKC,0.00,VWS V14.00,2013-12-23 06:13:00,
2013-12-22 22:16:00,24.1,16.4,30.27,NE,45,0.0,0.0,72,0.00,,SKC,0.00,VWS V14.00,2013-12-23 06:16:00,
2013-12-22 22:17:00,24.1,16.4,30.27,NE,45,0.0,0.0,72,0.00,,SKC,0.00,VWS V14.00,2013-12-23 06:17:00,
2013-12-22 22:19:00,23.9,15.9,30.27,NE,45,0.0,0.0,71,0.00,,SKC,0.00,VWS V14.00,2013-12-23 06:19:00,
2013-12-22 22:21:00,23.9,15.9,30.27,NE,45,0.0,0.0,71,0.00,,SKC,0.00,VWS V14.00,2013-12-23 06:21:00,
2013-12-22 22:22:00,23.9,15.9,30.27,NE,45,0.0,0.0,71,0.00,,SKC,0.00,VWS V14.00,2013-12-23 06:22:00,
2013-12-22 22:24:00,23.8,15.8,30.27,NE,45,0.0,0.0,71,0.00,,SKC,0.00,VWS V14.00,2013-12-23 06:24:00,
2013-12-22 22:26:00,23.6,15.9,30.27,NNE,22,0.0,0.0,72,0.00,,SKC,0.00,VWS V14.00,2013-12-23 06:26:00,
2013-12-22 22:27:00,23.6,15.9,30.27,NNE,22,0.0,0.0,72,0.00,,SKC,0.00,VWS V14.00,2013-12-23 06:27:00,
2013-12-22 22:28:00,23.6,15.9,30.27,NNE,22,0.0,0.0,72,0.00,,SKC,0.00,VWS V14.00,2013-12-23 06:28:00,
2013-12-22 22:29:00,23.6,15.9,30.27,NNE,22,0.0,0.0,72,0.00,,SKC,0.00,VWS V14.00,2013-12-23 06:29:00,
2013-12-22 22:31:00,23.6,16.2,30.27,ENE,68,0.0,0.0,73,0.00,,SKC,0.00,VWS V14.00,2013-12-23 06:31:00,
2013-12-22 22:32:00,23.6,16.2,30.27,ENE,68,0.0,0.0,73,0.00,,SKC,0.00,VWS V14.00,2013-12-23 06:32:00,
2013-12-22 22:33:00,23.8,16.4,30.27,NNE,22,0.0,0.0,73,0.00,,SKC,0.00,VWS V14.00,2013-12-23 06:33:00,
2013-12-22 22:34:00,23.9,16.6,30.27,NNE,22,0.0,0.0,73,0.00,,SKC,0.00,VWS V14.00,2013-12-23 06:34:00,
2013-12-22 22:37:00,23.9,16.6,30.27,NNE,22,0.0,0.0,73,0.00,,SKC,0.00,VWS V14.00,2013-12-23 06:37:00,
2013-12-22 22:38:00,23.9,16.6,30.27,NNE,22,0.0,0.0,73,0.00,,SKC,0.00,VWS V14.00,2013-12-23 06:38:00,
2013-12-22 22:39:00,23.9,16.6,30.27,NNE,22,0.0,0.0,73,0.00,,SKC,0.00,VWS V14.00,2013-12-23 06:39:00,
2013-12-22 22:42:00,23.9,16.6,30.27,NNE,22,0.0,0.0,73,0.00,,SKC,0.00,VWS V14.00,2013-12-23 06:42:00,
2013-12-22 22:43:00,23.9,16.6,30.27,NNE,22,0.0,0.0,73,0.00,,SKC,0.00,VWS V14.00,2013-12-23 06:43:00,
2013-12-22 22:44:00,23.9,16.6,30.30,ESE,112,0.0,0.0,73,0.00,,SKC,0.00,VWS V14.00,2013-12-23 06:44:00,
2013-12-22 22:47:00,23.6,15.9,30.30,ESE,112,0.0,0.0,72,0.00,,SKC,0.00,VWS V14.00,2013-12-23 06:47:00,
2013-12-22 22:48:00,23.6,15.6,30.30,ESE,112,0.0,0.0,71,0.00,,SKC,0.00,VWS V14.00,2013-12-23 06:48:00,
2013-12-22 22:49:00,23.6,15.9,30.30,ESE,112,0.0,0.0,72,0.00,,SKC,0.00,VWS V14.00,2013-12-23 06:49:00,
2013-12-22 22:52:00,23.4,16.0,30.30,ESE,112,0.0,0.0,73,0.00,,SKC,0.00,VWS V14.00,2013-12-23 06:52:00,
2013-12-22 22:53:00,23.4,16.4,30.30,ESE,112,0.0,0.0,74,0.00,,SKC,0.00,VWS V14.00,2013-12-23 06:53:00,
2013-12-22 22:54:00,23.2,15.9,30.30,ESE,112,0.0,0.0,73,0.00,,SKC,0.00,VWS V14.00,2013-12-23 06:54:00,
2013-12-22 22:57:00,23.0,15.7,30.30,ESE,112,0.0,0.0,73,0.00,,SKC,0.00,VWS V14.00,2013-12-23 06:57:00,
2013-12-22 22:58:00,23.0,15.7,30.30,ESE,112,0.0,0.0,73,0.00,,SKC,0.00,VWS V14.00,2013-12-23 06:58:00,
2013-12-22 22:59:00,23.2,15.9,30.27,ESE,112,0.0,0.0,73,0.00,,SKC,0.00,VWS V14.00,2013-12-23 06:59:00,
2013-12-22 23:00:00,23.4,16.0,30.27,ESE,112,0.0,0.0,73,0.00,,SKC,0.00,VWS V14.00,2013-12-23 07:00:00,
2013-12-22 23:03:00,23.4,16.0,30.27,ESE,112,0.0,0.0,73,0.00,,SKC,0.00,VWS V14.00,2013-12-23 07:03:00,
2013-12-22 23:04:00,23.2,15.9,30.27,ESE,112,0.0,0.0,73,0.00,,SKC,0.00,VWS V14.00,2013-12-23 07:04:00,
2013-12-22 23:05:00,23.2,15.9,30.27,ESE,112,0.0,0.0,73,0.00,,SKC,0.00,VWS V14.00,2013-12-23 07:05:00,
2013-12-22 23:08:00,23.2,15.6,30.27,ESE,112,0.0,0.0,72,0.00,,SKC,0.00,VWS V14.00,2013-12-23 07:08:00,
2013-12-22 23:09:00,23.2,15.6,30.27,ESE,112,0.0,0.0,72,0.00,,SKC,0.00,VWS V14.00,2013-12-23 07:09:00,
2013-12-22 23:10:00,23.0,15.4,30.27,SW,225,0.0,0.0,72,0.00,,SKC,0.00,VWS V14.00,2013-12-23 07:10:00,
2013-12-22 23:13:00,23.0,15.4,30.27,SW,225,0.0,0.0,72,0.00,,SKC,0.00,VWS V14.00,2013-12-23 07:13:00,
2013-12-22 23:14:00,23.0,15.4,30.27,SW,225,0.0,0.0,72,0.00,,SKC,0.00,VWS V14.00,2013-12-23 07:14:00,
2013-12-22 23:15:00,23.0,15.4,30.27,SW,225,0.0,0.0,72,0.00,,SKC,0.00,VWS V14.00,2013-12-23 07:15:00,
2013-12-22 23:18:00,22.9,14.9,30.27,West,270,0.0,0.0,71,0.00,,SKC,0.00,VWS V14.00,2013-12-23 07:18:00,
2013-12-22 23:19:00,22.9,14.9,30.27,West,270,0.0,0.0,71,0.00,,SKC,0.00,VWS V14.00,2013-12-23 07:19:00,
2013-12-22 23:20:00,22.9,14.9,30.27,West,270,0.0,0.0,71,0.00,,SKC,0.00,VWS V14.00,2013-12-23 07:20:00,
2013-12-22 23:23:00,22.7,15.0,30.27,West,270,0.0,0.0,72,0.00,,SKC,0.00,VWS V14.00,2013-12-23 07:23:00,
2013-12-22 23:24:00,22.7,15.0,30.27,West,270,0.0,0.0,72,0.00,,SKC,0.00,VWS V14.00,2013-12-23 07:24:00,
2013-12-22 23:25:00,22.7,15.0,30.27,West,270,0.0,0.0,72,0.00,,SKC,0.00,VWS V14.00,2013-12-23 07:25:00,
2013-12-22 23:28:00,22.7,15.0,30.27,WNW,292,0.0,0.0,72,0.00,,SKC,0.00,VWS V14.00,2013-12-23 07:28:00,
2013-12-22 23:29:00,22.7,15.0,30.27,WNW,292,0.0,0.0,72,0.00,,SKC,0.00,VWS V14.00,2013-12-23 07:29:00,
2013-12-22 23:30:00,22.7,15.0,30.27,WNW,292,0.0,0.0,72,0.00,,SKC,0.00,VWS V14.00,2013-12-23 07:30:00,
2013-12-22 23:31:00,22.7,15.0,30.27,WNW,292,0.0,0.0,72,0.00,,SKC,0.00,VWS V14.00,2013-12-23 07:31:00,
2013-12-22 23:33:00,22.5,15.2,30.27,West,270,0.0,0.0,73,0.00,,SKC,0.00,VWS V14.00,2013-12-23 07:33:00,
2013-12-22 23:35:00,22.5,15.2,30.27,West,270,0.0,0.0,73,0.00,,SKC,0.00,VWS V14.00,2013-12-23 07:35:00,
2013-12-22 23:36:00,22.5,15.2,30.27,West,270,0.9,0.9,73,0.00,,SKC,0.00,VWS V14.00,2013-12-23 07:36:00,
2013-12-22 23:38:00,22.7,15.6,30.27,West,270,0.0,0.0,74,0.00,,SKC,0.00,VWS V14.00,2013-12-23 07:38:00,
2013-12-22 23:40:00,23.0,16.6,30.27,ENE,68,0.9,0.9,76,0.00,,SKC,0.00,VWS V14.00,2013-12-23 07:40:00,
2013-12-22 23:41:00,23.0,16.9,30.27,ENE,68,0.0,0.0,77,0.00,,SKC,0.00,VWS V14.00,2013-12-23 07:41:00,
2013-12-22 23:43:00,22.9,16.4,30.27,East,90,0.0,0.0,76,0.00,,SKC,0.00,VWS V14.00,2013-12-23 07:43:00,
2013-12-22 23:45:00,23.2,17.1,30.27,ENE,68,0.0,0.0,77,0.00,,SKC,0.00,VWS V14.00,2013-12-23 07:45:00,
2013-12-22 23:46:00,23.4,17.3,30.27,ENE,68,0.0,0.0,77,0.00,,SKC,0.00,VWS V14.00,2013-12-23 07:46:00,
2013-12-22 23:47:00,23.4,17.3,30.27,ENE,68,0.0,0.0,77,0.00,,SKC,0.00,VWS V14.00,2013-12-23 07:47:00,
2013-12-22 23:49:00,23.2,16.8,30.27,ENE,68,0.0,0.0,76,0.00,,SKC,0.00,VWS V14.00,2013-12-23 07:49:00,
2013-12-22 23:50:00,23.0,16.6,30.27,ENE,68,0.0,0.0,76,0.00,,SKC,0.00,VWS V14.00,2013-12-23 07:50:00,
2013-12-22 23:51:00,23.0,16.6,30.27,ENE,68,0.0,0.0,76,0.00,,SKC,0.00,VWS V14.00,2013-12-23 07:51:00,
2013-12-22 23:52:00,23.0,16.3,30.27,ENE,68,0.0,0.0,75,0.00,,SKC,0.00,VWS V14.00,2013-12-23 07:52:00,
2013-12-22 23:54:00,22.9,16.1,30.27,SE,135,0.0,0.0,75,0.00,,SKC,0.00,VWS V14.00,2013-12-23 07:54:00,
2013-12-22 23:55:00,22.9,16.1,30.27,SE,135,0.0,0.0,75,0.00,,SKC,0.00,VWS V14.00,2013-12-23 07:55:00,
2013-12-22 23:56:00,22.9,15.8,30.27,ENE,68,0.0,0.0,74,0.00,,SKC,0.00,VWS V14.00,2013-12-23 07:56:00,
2013-12-22 23:58:00,22.9,15.8,30.27,East,90,0.0,0.0,74,0.00,,SKC,0.00,VWS V14.00,2013-12-23 07:58:00,
2013-12-22 23:59:00,22.9,15.8,30.27,East,90,0.0,0.0,74,0.00,,SKC,0.00,VWS V14.00,2013-12-23 07:59:00,